GFSSW_500_temp_000.txt.gz
Temp
-12 -11 -11 -12 -12 -11 -11 -10 -11 -11 -10 -9 -9 -9 -9 -9 -9 -10 -10 -10 -10 -10 -10 -10 -10 -10 -10 -10 -10 -10 -9 -9 -8 -9 -9 -9 -8 -8 -9 -9 -9 -9 -9 -10 -10
-11 -11 -11 -12 -12 -11 -11 -11 -11 -10 -10 -9 -9 -9 -9 -10 -10 -10 -10 -10 -10 -10 -10 -10 -10 -10 -10 -10 -10 -10 -9 -9 -9 -9 -9 -10 -9 -9 -10 -10 -10 -9 -10 -10 -10
-11 -11 -11 -11 -10 -10 -10 -10 -10 -10 -10 -10 -10 -9 -9 -9 -9 -10 -10 -10 -10 -10 -10 -10 -10 -10 -10 -10 -11 -10 -10 -9 -9 -10 -10 -10 -9 -9 -10 -10 -10 -10 -10 -10 -10
-11 -11 -11 -10 -10 -10 -9 -9 -9 -9 -9 -9 -9 -9 -9 -9 -10 -9 -10 -10 -10 -10 -10 -10 -11 -11 -10 -10 -11 -11 -10 -10 -10 -10 -10 -10 -9 -10 -10 -10 -10 -11 -11 -10 -11
-10 -10 -10 -10 -10 -9 -9 -9 -10 -10 -9 -9 -9 -9 -9 -9 -10 -10 -10 -10 -9 -9 -10 -11 -11 -11 -11 -11 -11 -11 -11 -11 -11 -10 -10 -10 -10 -10 -11 -12 -11 -11 -11 -10 -11
-10 -10 -10 -10 -10 -9 -9 -9 -9 -9 -9 -8 -8 -8 -9 -9 -11 -10 -10 -9 -9 -9 -10 -10 -12 -11 -11 -11 -11 -11 -11 -11 -11 -11 -10 -10 -10 -12 -12 -12 -12 -11 -11 -11 -11
-9 -9 -9 -9 -9 -9 -9 -9 -9 -9 -9 -9 -9 -8 -8 -10 -10 -10 -10 -10 -10 -10 -11 -11 -12 -11 -12 -12 -11 -11 -11 -12 -12 -11 -11 -10 -11 -12 -12 -13 -12 -11 -11 -11 -11
-9 -9 -9 -9 -9 -9 -9 -9 -9 -9 -9 -9 -9 -9 -8 -10 -9 -10 -10 -10 -10 -10 -11 -12 -12 -11 -11 -12 -13 -12 -12 -11 -11 -11 -11 -10 -12 -12 -12 -13 -11 -12 -12 -12 -11
-9 -9 -9 -9 -9 -9 -9 -9 -9 -9 -9 -9 -9 -9 -9 -10 -10 -10 -10 -10 -10 -11 -12 -12 -11 -12 -12 -12 -12 -11 -12 -12 -12 -12 -11 -11 -11 -13 -13 -12 -12 -12 -12 -12 -11
-9 -9 -9 -9 -9 -9 -9 -9 -9 -9 -9 -9 -9 -9 -10 -10 -10 -10 -10 -10 -10 -11 -11 -11 -11 -11 -11 -11 -11 -12 -11 -11 -11 -12 -11 -11 -12 -13 -12 -12 -13 -13 -13 -12 -12
-9 -9 -9 -9 -9 -9 -10 -9 -9 -9 -9 -9 -9 -9 -9 -9 -9 -11 -11 -11 -11 -11 -10 -11 -11 -10 -11 -12 -12 -12 -11 -11 -11 -13 -12 -12 -12 -12 -12 -12 -13 -13 -13 -13 -12
-9 -9 -9 -9 -9 -9 -10 -9 -9 -9 -9 -9 -9 -9 -9 -9 -9 -10 -11 -10 -10 -10 -11 -11 -10 -11 -12 -11 -11 -12 -11 -11 -11 -12 -12 -12 -12 -12 -13 -13 -13 -14 -14 -13 -12
-10 -10 -10 -10 -9 -10 -10 -10 -10 -10 -9 -9 -9 -9 -10 -9 -9 -9 -9 -10 -11 -11 -11 -11 -11 -12 -12 -11 -11 -11 -11 -11 -11 -12 -12 -12 -11 -12 -13 -13 -12 -13 -13 -13 -13
-10 -10 -10 -10 -10 -10 -10 -10 -10 -10 -9 -9 -9 -9 -9 -9 -8 -9 -9 -10 -10 -10 -11 -11 -11 -11 -11 -11 -11 -11 -12 -12 -12 -12 -12 -12 -11 -12 -12 -13 -13 -12 -13 -13 -13
-10 -10 -10 -11 -10 -11 -11 -10 -10 -10 -9 -9 -8 -9 -9 -8 -9 -9 -10 -10 -9 -10 -11 -10 -11 -11 -11 -12 -12 -12 -13 -13 -12 -12 -11 -11 -11 -11 -12 -13 -12 -12 -13 -13 -13
-10 -11 -11 -11 -11 -12 -12 -11 -11 -11 -8 -8 -8 -9 -9 -9 -9 -10 -9 -10 -10 -10 -10 -10 -11 -11 -11 -12 -12 -12 -12 -12 -12 -12 -11 -12 -12 -11 -13 -12 -12 -13 -13 -13 -13
-12 -12 -12 -11 -12 -12 -12 -12 -12 -10 -8 -8 -9 -9 -9 -9 -9 -10 -10 -10 -9 -9 -9 -9 -10 -11 -11 -12 -12 -12 -12 -12 -12 -12 -11 -13 -12 -12 -12 -11 -12 -13 -13 -13 -12
-12 -12 -12 -12 -12 -13 -13 -13 -12 -9 -9 -9 -9 -10 -10 -10 -9 -10 -10 -10 -10 -9 -9 -9 -9 -11 -11 -11 -12 -12 -13 -13 -12 -13 -12 -13 -12 -12 -12 -12 -12 -13 -12 -13 -12
-12 -12 -12 -12 -13 -14 -14 -14 -10 -9 -9 -10 -10 -11 -10 -10 -10 -11 -10 -10 -10 -10 -10 -9 -9 -11 -11 -11 -12 -13 -13 -13 -13 -14 -12 -12 -12 -13 -13 -13 -12 -13 -13 -12 -12
-12 -12 -12 -13 -14 -15 -15 -13 -11 -10 -10 -11 -11 -11 -12 -11 -11 -11 -11 -9 -10 -10 -10 -10 -10 -12 -11 -11 -12 -13 -14 -14 -14 -14 -13 -12 -12 -13 -13 -13 -13 -13 -12 -12 -12
-14 -13 -13 -15 -15 -15 -15 -12 -12 -12 -11 -12 -12 -12 -12 -12 -12 -11 -11 -11 -11 -11 -11 -11 -11 -11 -12 -10 -11 -12 -13 -14 -13 -14 -13 -12 -12 -14 -14 -13 -13 -13 -12 -12 -12
-19 -15 -14 -16 -17 -15 -14 -12 -13 -12 -13 -13 -13 -13 -13 -13 -12 -12 -11 -12 -12 -12 -11 -11 -11 -11 -12 -11 -12 -12 -13 -14 -14 -14 -14 -13 -12 -14 -14 -14 -14 -13 -13 -12 -12
-24 -21 -18 -17 -19 -16 -15 -14 -14 -14 -14 -13 -13 -14 -13 -13 -13 -12 -12 -12 -12 -12 -12 -12 -11 -11 -11 -11 -11 -10 -12 -13 -13 -14 -14 -13 -12 -14 -14 -14 -14 -14 -13 -12 -12
-26 -24 -24 -23 -21 -18 -17 -16 -15 -15 -15 -15 -14 -14 -14 -14 -13 -13 -13 -13 -13 -13 -13 -13 -12 -11 -10 -11 -11 -12 -12 -13 -13 -13 -13 -12 -12 -14 -14 -14 -14 -13 -13 -12 -12
-28 -28 -26 -26 -25 -21 -19 -18 -17 -16 -15 -16 -15 -15 -15 -14 -14 -14 -13 -13 -14 -14 -14 -13 -12 -11 -11 -11 -12 -12 -13 -13 -13 -12 -13 -12 -12 -14 -14 -13 -13 -13 -13 -12 -12
-27 -27 -27 -26 -25 -25 -22 -20 -18 -17 -18 -17 -16 -16 -15 -15 -15 -14 -14 -14 -15 -15 -14 -14 -12 -12 -12 -12 -12 -11 -10 -12 -13 -13 -13 -13 -12 -12 -14 -13 -14 -13 -13 -12 -12
-28 -27 -27 -25 -25 -25 -24 -22 -20 -19 -18 -18 -18 -17 -16 -15 -15 -15 -15 -15 -15 -15 -14 -14 -13 -13 -12 -12 -12 -10 -11 -11 -12 -12 -12 -12 -12 -12 -13 -13 -13 -13 -13 -13 -13

GFSSW_500_temp_003.txt.gz
Temp
-12 -12 -12 -11 -11 -11 -11 -11 -11 -11 -10 -10 -11 -11 -11 -11 -10 -10 -10 -11 -11 -10 -10 -10 -10 -10 -10 -10 -10 -10 -10 -10 -10 -9 -9 -9 -10 -10 -9 -9 -9 -9 -9 -10 -10
-11 -12 -12 -12 -11 -12 -11 -12 -12 -12 -11 -12 -11 -11 -11 -10 -10 -10 -11 -11 -11 -10 -10 -10 -10 -10 -10 -10 -10 -10 -10 -11 -10 -10 -10 -11 -11 -10 -10 -9 -9 -10 -10 -10 -11
-10 -10 -11 -11 -12 -11 -11 -12 -12 -12 -11 -11 -11 -11 -11 -11 -10 -11 -10 -10 -10 -10 -10 -11 -11 -10 -10 -10 -10 -11 -10 -11 -10 -11 -10 -11 -11 -11 -10 -10 -10 -10 -11 -11 -11
-10 -11 -11 -11 -11 -11 -12 -12 -11 -10 -9 -10 -10 -10 -11 -10 -10 -10 -10 -10 -11 -11 -10 -10 -10 -10 -11 -11 -11 -11 -11 -11 -11 -11 -11 -11 -11 -11 -11 -11 -11 -11 -11 -11 -11
-10 -10 -10 -10 -10 -11 -11 -10 -10 -9 -9 -9 -9 -9 -9 -9 -9 -10 -10 -10 -11 -11 -10 -10 -10 -10 -11 -11 -11 -11 -12 -11 -12 -12 -13 -12 -11 -11 -11 -11 -11 -11 -11 -11 -11
-10 -10 -10 -10 -10 -10 -10 -10 -10 -9 -9 -9 -9 -9 -8 -8 -9 -9 -10 -10 -11 -11 -10 -10 -10 -10 -10 -11 -10 -11 -12 -12 -12 -12 -13 -12 -11 -11 -11 -11 -12 -12 -12 -12 -12
-9 -9 -10 -10 -9 -10 -10 -10 -9 -9 -9 -9 -9 -8 -8 -10 -9 -9 -10 -10 -10 -10 -10 -10 -10 -10 -10 -11 -10 -11 -11 -13 -12 -13 -12 -12 -12 -11 -11 -12 -12 -12 -12 -13 -13
-10 -10 -10 -10 -10 -10 -10 -9 -9 -9 -9 -9 -9 -8 -8 -9 -9 -9 -10 -10 -10 -10 -10 -10 -10 -10 -10 -10 -11 -11 -12 -13 -13 -13 -12 -12 -12 -12 -12 -12 -12 -12 -12 -13 -13
-10 -9 -9 -9 -9 -9 -9 -9 -9 -9 -9 -9 -9 -8 -8 -9 -9 -9 -9 -10 -10 -10 -10 -10 -10 -10 -11 -11 -11 -11 -12 -13 -13 -13 -13 -12 -11 -12 -12 -12 -12 -12 -12 -13 -13
-9 -9 -9 -9 -9 -10 -9 -9 -9 -8 -8 -8 -8 -9 -8 -9 -10 -10 -9 -10 -10 -10 -10 -10 -10 -10 -10 -10 -11 -12 -12 -12 -12 -13 -12 -12 -11 -12 -13 -12 -13 -12 -12 -13 -14
-9 -9 -9 -9 -9 -9 -10 -9 -9 -9 -9 -9 -8 -9 -9 -9 -10 -10 -10 -10 -10 -10 -10 -10 -10 -10 -11 -12 -11 -12 -12 -12 -12 -12 -12 -12 -11 -11 -12 -12 -13 -12 -13 -13 -14
-9 -9 -9 -9 -10 -9 -10 -10 -9 -9 -9 -9 -9 -9 -9 -9 -10 -10 -10 -9 -10 -10 -10 -10 -10 -11 -11 -11 -11 -12 -12 -12 -11 -12 -11 -11 -11 -11 -12 -12 -13 -13 -13 -13 -13
-9 -9 -10 -10 -10 -10 -10 -10 -10 -9 -9 -9 -9 -9 -10 -9 -10 -10 -9 -9 -10 -10 -10 -11 -11 -11 -11 -11 -11 -11 -11 -11 -11 -12 -11 -11 -11 -11 -11 -12 -13 -12 -12 -13 -13
-10 -10 -9 -9 -10 -10 -10 -10 -10 -10 -9 -9 -9 -9 -10 -10 -9 -10 -10 -9 -9 -9 -10 -11 -11 -11 -11 -11 -11 -11 -11 -11 -11 -11 -11 -12 -11 -11 -12 -12 -13 -12 -12 -12 -13
-11 -11 -11 -10 -10 -11 -11 -11 -10 -10 -10 -9 -9 -9 -9 -9 -10 -9 -10 -9 -9 -9 -10 -10 -11 -11 -11 -12 -12 -11 -11 -11 -12 -11 -11 -12 -11 -11 -12 -12 -12 -12 -12 -12 -13
-11 -11 -11 -10 -11 -11 -11 -11 -11 -11 -9 -9 -8 -9 -9 -9 -10 -10 -9 -9 -10 -10 -10 -10 -10 -10 -11 -11 -11 -11 -11 -11 -12 -12 -11 -12 -13 -12 -12 -12 -12 -12 -12 -13 -13
-11 -12 -11 -11 -12 -12 -12 -12 -12 -11 -9 -9 -9 -9 -9 -9 -10 -10 -9 -9 -9 -9 -9 -9 -9 -10 -11 -11 -11 -11 -12 -12 -12 -12 -12 -12 -12 -12 -12 -12 -12 -12 -12 -13 -13
-11 -12 -12 -11 -12 -13 -13 -13 -12 -9 -10 -10 -9 -10 -9 -10 -10 -10 -10 -9 -9 -10 -10 -10 -10 -10 -11 -11 -11 -12 -12 -12 -12 -12 -12 -12 -12 -12 -13 -12 -12 -12 -12 -12 -12
-12 -11 -12 -12 -12 -14 -14 -14 -10 -10 -10 -10 -10 -10 -10 -10 -10 -10 -10 -9 -9 -10 -10 -10 -10 -11 -11 -11 -11 -11 -11 -12 -12 -12 -12 -12 -12 -13 -13 -13 -13 -13 -13 -13 -12
-17 -14 -12 -13 -13 -14 -16 -13 -11 -11 -11 -11 -11 -12 -12 -11 -11 -10 -10 -9 -9 -10 -10 -10 -10 -11 -12 -11 -11 -10 -12 -12 -12 -12 -12 -12 -12 -14 -13 -14 -13 -14 -13 -13 -12
-22 -20 -16 -14 -15 -16 -15 -12 -12 -12 -12 -12 -12 -12 -12 -12 -12 -11 -11 -10 -10 -10 -11 -11 -10 -10 -11 -10 -11 -11 -10 -11 -12 -12 -12 -12 -13 -14 -14 -14 -14 -14 -13 -13 -12
-23 -23 -22 -19 -18 -16 -16 -13 -13 -13 -13 -13 -13 -13 -13 -13 -12 -12 -11 -11 -11 -11 -11 -11 -11 -11 -11 -11 -11 -11 -11 -12 -11 -12 -12 -13 -12 -14 -14 -14 -14 -14 -13 -13 -12
-25 -24 -24 -24 -21 -21 -16 -16 -15 -14 -14 -14 -13 -13 -13 -13 -13 -13 -12 -12 -12 -12 -12 -12 -11 -11 -11 -11 -10 -10 -10 -10 -10 -12 -12 -12 -12 -14 -14 -14 -14 -14 -13 -13 -12
-26 -27 -26 -26 -24 -23 -18 -18 -16 -15 -15 -15 -14 -14 -14 -14 -13 -13 -13 -12 -12 -12 -12 -13 -12 -11 -10 -10 -11 -10 -10 -10 -10 -11 -12 -12 -12 -13 -14 -13 -13 -13 -13 -13 -12
-28 -27 -27 -26 -25 -24 -24 -21 -18 -16 -16 -17 -16 -15 -14 -14 -14 -14 -14 -13 -13 -13 -13 -13 -11 -11 -11 -11 -11 -11 -11 -11 -11 -12 -12 -12 -12 -13 -13 -13 -13 -13 -13 -13 -12
-28 -28 -27 -26 -26 -26 -26 -23 -21 -19 -18 -18 -17 -18 -16 -15 -15 -14 -15 -14 -14 -13 -14 -13 -12 -11 -11 -11 -11 -11 -11 -11 -10 -11 -11 -12 -12 -13 -13 -13 -13 -13 -13 -12 -12
-28 -28 -27 -26 -26 -26 -26 -25 -23 -22 -20 -20 -19 -19 -18 -17 -16 -16 -16 -15 -14 -14 -14 -13 -12 -12 -11 -12 -12 -11 -11 -10 -10 -10 -11 -11 -12 -13 -12 -12 -13 -13 -13 -12 -12

GFSSW_500_temp_006.txt.gz
Temp
-12 -12 -12 -12 -12 -12 -12 -11 -11 -11 -11 -11 -11 -10 -10 -10 -11 -11 -10 -12 -11 -11 -11 -10 -10 -10 -10 -10 -10 -10 -10 -10 -11 -11 -11 -11 -11 -11 -11 -10 -10 -10 -10 -9 -10
-13 -12 -12 -12 -12 -12 -11 -11 -11 -11 -11 -11 -11 -11 -10 -11 -10 -11 -12 -12 -11 -11 -11 -10 -10 -10 -10 -10 -10 -10 -11 -11 -11 -11 -11 -11 -11 -12 -11 -11 -10 -10 -10 -10 -10
-11 -12 -12 -12 -11 -11 -11 -12 -11 -12 -12 -11 -11 -11 -11 -11 -11 -12 -12 -12 -11 -11 -11 -11 -10 -10 -10 -10 -10 -10 -11 -11 -11 -11 -11 -11 -12 -12 -12 -11 -10 -10 -10 -10 -10
-10 -10 -11 -11 -11 -11 -11 -12 -12 -12 -12 -11 -12 -12 -11 -11 -11 -12 -12 -11 -11 -11 -11 -11 -10 -11 -10 -10 -10 -10 -11 -11 -11 -12 -12 -12 -12 -12 -12 -12 -11 -11 -10 -11 -11
-10 -10 -10 -10 -10 -11 -11 -11 -11 -11 -12 -12 -12 -12 -11 -9 -10 -12 -11 -11 -11 -11 -11 -11 -10 -10 -11 -10 -10 -9 -11 -11 -11 -12 -12 -12 -12 -13 -13 -12 -12 -11 -11 -11 -11
-9 -9 -9 -9 -10 -10 -10 -10 -10 -10 -10 -10 -10 -10 -10 -9 -11 -10 -10 -10 -10 -10 -11 -11 -11 -11 -10 -9 -9 -10 -10 -11 -11 -12 -12 -12 -12 -13 -13 -12 -12 -11 -11 -11 -12
-9 -9 -9 -9 -9 -9 -10 -10 -10 -10 -10 -10 -10 -9 -9 -10 -10 -10 -9 -9 -9 -10 -11 -11 -11 -10 -10 -9 -10 -10 -11 -11 -12 -12 -12 -12 -13 -13 -13 -12 -12 -12 -12 -12 -12
-10 -10 -10 -10 -10 -10 -9 -9 -9 -9 -9 -9 -9 -9 -8 -10 -9 -9 -9 -9 -9 -9 -10 -10 -10 -10 -9 -10 -10 -10 -10 -12 -12 -12 -12 -12 -12 -12 -13 -12 -12 -12 -12 -12 -12
-10 -10 -10 -10 -10 -10 -10 -10 -10 -10 -10 -9 -9 -9 -8 -9 -10 -10 -9 -9 -9 -9 -9 -10 -9 -9 -9 -10 -11 -10 -11 -12 -13 -12 -12 -12 -12 -12 -13 -12 -12 -12 -12 -12 -12
-9 -9 -10 -10 -10 -10 -10 -9 -9 -9 -9 -9 -9 -9 -8 -10 -10 -10 -9 -10 -10 -10 -10 -10 -9 -9 -10 -10 -10 -11 -12 -12 -12 -12 -11 -12 -12 -12 -12 -12 -12 -12 -12 -12 -11
-10 -10 -9 -9 -10 -10 -10 -10 -10 -9 -9 -9 -9 -9 -8 -9 -10 -10 -10 -10 -9 -10 -10 -10 -10 -9 -10 -10 -11 -12 -12 -12 -12 -12 -11 -12 -11 -11 -11 -11 -11 -12 -12 -12 -12
-10 -10 -10 -10 -10 -10 -10 -10 -10 -9 -9 -9 -9 -9 -9 -9 -9 -9 -9 -9 -9 -9 -10 -10 -9 -10 -11 -11 -11 -11 -11 -11 -11 -11 -11 -11 -11 -11 -11 -11 -11 -12 -12 -12 -12
-10 -10 -10 -10 -10 -11 -10 -10 -10 -10 -9 -9 -9 -9 -9 -9 -9 -9 -9 -9 -9 -9 -9 -9 -10 -11 -11 -11 -11 -11 -11 -11 -11 -11 -11 -11 -10 -11 -11 -11 -11 -12 -12 -12 -12
-10 -10 -10 -10 -11 -11 -11 -11 -11 -10 -10 -9 -9 -9 -10 -9 -9 -10 -9 -9 -9 -9 -10 -10 -11 -11 -11 -11 -11 -11 -11 -11 -11 -11 -11 -11 -11 -11 -11 -11 -12 -12 -12 -12 -12
-11 -10 -10 -10 -10 -12 -11 -11 -11 -11 -11 -9 -9 -9 -9 -9 -9 -10 -10 -9 -9 -9 -10 -9 -10 -10 -11 -11 -12 -11 -11 -11 -11 -11 -11 -11 -11 -11 -12 -12 -12 -12 -12 -12 -12
-11 -11 -11 -10 -10 -11 -12 -12 -12 -12 -10 -9 -9 -9 -9 -9 -10 -10 -9 -10 -10 -10 -10 -10 -10 -11 -11 -12 -11 -11 -10 -10 -11 -11 -11 -11 -12 -13 -13 -12 -12 -12 -12 -12 -12
-11 -11 -11 -11 -11 -12 -12 -12 -13 -11 -9 -9 -9 -9 -10 -10 -10 -10 -9 -9 -9 -9 -9 -10 -9 -11 -11 -11 -10 -10 -10 -11 -11 -12 -11 -12 -12 -12 -13 -13 -12 -11 -12 -12 -12
-15 -13 -12 -11 -12 -13 -13 -13 -13 -9 -10 -10 -10 -10 -10 -10 -10 -10 -10 -9 -9 -10 -10 -10 -10 -10 -10 -10 -10 -11 -11 -11 -12 -12 -13 -13 -12 -13 -13 -13 -12 -12 -13 -12 -12
-22 -20 -15 -13 -13 -14 -14 -14 -10 -10 -11 -11 -11 -11 -10 -10 -10 -10 -10 -9 -9 -9 -10 -10 -10 -10 -10 -11 -11 -10 -10 -11 -10 -11 -12 -13 -13 -13 -14 -13 -12 -13 -13 -12 -12
-23 -22 -21 -19 -17 -17 -17 -13 -11 -11 -12 -12 -12 -12 -11 -11 -10 -10 -10 -9 -9 -9 -10 -10 -10 -10 -10 -11 -11 -10 -10 -10 -10 -10 -13 -14 -12 -14 -14 -14 -13 -13 -13 -13 -12
-23 -23 -23 -22 -21 -21 -19 -12 -12 -12 -13 -13 -12 -13 -12 -12 -11 -11 -11 -10 -10 -10 -10 -10 -10 -10 -11 -11 -10 -10 -10 -9 -10 -11 -13 -14 -13 -14 -14 -13 -13 -13 -13 -13 -13
-24 -23 -24 -24 -23 -22 -21 -14 -15 -14 -14 -14 -13 -13 -13 -14 -12 -12 -11 -11 -11 -11 -10 -10 -10 -10 -10 -10 -11 -11 -10 -10 -10 -11 -11 -13 -13 -14 -14 -13 -13 -14 -13 -13 -13
-25 -25 -25 -26 -24 -24 -22 -19 -18 -16 -15 -15 -14 -15 -15 -14 -14 -13 -12 -11 -11 -11 -11 -11 -11 -11 -11 -10 -11 -10 -10 -10 -10 -11 -11 -13 -13 -13 -13 -13 -13 -13 -13 -13 -13
-26 -26 -26 -26 -26 -26 -24 -23 -21 -17 -17 -16 -15 -14 -14 -14 -14 -14 -13 -12 -12 -12 -12 -12 -12 -11 -10 -10 -10 -10 -10 -10 -10 -10 -10 -11 -12 -14 -13 -13 -13 -13 -13 -13 -12
-27 -27 -27 -27 -26 -26 -26 -25 -23 -20 -19 -19 -17 -17 -16 -15 -15 -15 -14 -13 -13 -12 -12 -12 -11 -11 -11 -12 -11 -11 -11 -11 -10 -10 -11 -12 -12 -13 -13 -13 -13 -13 -13 -13 -13
-27 -28 -28 -27 -27 -26 -26 -25 -25 -24 -21 -22 -19 -19 -19 -16 -17 -16 -15 -14 -13 -13 -13 -13 -12 -12 -11 -11 -11 -11 -10 -10 -10 -10 -10 -11 -11 -13 -13 -14 -13 -13 -13 -12 -13
-27 -28 -27 -27 -27 -27 -26 -26 -26 -25 -24 -23 -23 -20 -19 -19 -17 -16 -15 -14 -13 -13 -13 -13 -12 -12 -11 -12 -12 -11 -10 -10 -10 -10 -10 -10 -11 -12 -13 -12 -13 -13 -13 -13 -12

GFSSW_500_temp_009.txt.gz
Temp
-10 -10 -10 -11 -12 -11 -11 -11 -11 -11 -10 -10 -10 -10 -10 -10 -10 -10 -10 -10 -10 -11 -10 -10 -10 -10 -10 -10 -10 -10 -10 -10 -11 -11 -11 -11 -11 -12 -11 -12 -11 -11 -10 -10 -10
-10 -10 -11 -11 -12 -12 -12 -11 -12 -12 -11 -11 -11 -10 -10 -10 -10 -10 -10 -11 -11 -11 -11 -11 -11 -11 -11 -11 -10 -10 -10 -10 -11 -12 -11 -11 -12 -12 -12 -12 -11 -11 -11 -11 -11
-10 -10 -11 -12 -12 -12 -12 -12 -12 -12 -12 -12 -11 -10 -10 -11 -11 -11 -11 -11 -12 -12 -11 -10 -11 -11 -11 -11 -11 -10 -10 -11 -11 -11 -11 -11 -11 -13 -12 -12 -13 -13 -12 -11 -11
-10 -10 -10 -10 -11 -12 -12 -12 -12 -12 -12 -12 -11 -11 -11 -11 -11 -10 -11 -11 -11 -11 -11 -11 -11 -11 -11 -11 -11 -10 -9 -10 -10 -11 -11 -11 -12 -12 -12 -12 -13 -12 -12 -11 -11
-10 -10 -10 -10 -11 -12 -12 -12 -12 -12 -12 -12 -11 -11 -11 -10 -11 -12 -11 -10 -10 -11 -11 -11 -11 -11 -11 -11 -11 -10 -9 -10 -10 -10 -11 -11 -11 -12 -12 -13 -12 -12 -12 -12 -12
-10 -10 -10 -10 -10 -11 -11 -11 -11 -11 -11 -11 -11 -11 -11 -11 -13 -12 -10 -11 -11 -11 -11 -12 -11 -12 -12 -11 -11 -10 -9 -10 -11 -11 -11 -10 -12 -12 -12 -12 -12 -13 -13 -13 -11
-10 -10 -10 -10 -10 -10 -10 -11 -11 -11 -11 -11 -11 -10 -10 -10 -11 -11 -10 -10 -10 -10 -11 -10 -11 -11 -11 -11 -11 -10 -10 -11 -10 -10 -11 -11 -11 -12 -11 -12 -12 -12 -12 -12 -11
-9 -10 -10 -10 -10 -10 -10 -10 -10 -11 -10 -11 -10 -9 -8 -10 -11 -10 -10 -10 -10 -10 -10 -10 -10 -11 -11 -11 -10 -10 -10 -10 -11 -12 -12 -11 -11 -13 -13 -12 -13 -12 -12 -12 -12
-9 -9 -9 -10 -10 -10 -10 -10 -10 -10 -10 -10 -10 -9 -8 -10 -10 -11 -10 -10 -10 -9 -9 -10 -10 -10 -11 -11 -10 -10 -10 -11 -12 -12 -12 -11 -11 -12 -12 -13 -12 -12 -12 -12 -12
-9 -9 -9 -9 -10 -10 -10 -10 -10 -10 -10 -10 -9 -9 -9 -9 -10 -10 -10 -10 -9 -10 -10 -10 -10 -10 -10 -10 -9 -11 -12 -12 -12 -12 -12 -12 -12 -13 -13 -12 -12 -12 -12 -12 -12
-10 -10 -9 -9 -10 -10 -10 -10 -10 -10 -9 -9 -9 -9 -9 -9 -9 -9 -10 -10 -10 -9 -9 -10 -10 -9 -9 -10 -11 -11 -12 -12 -12 -12 -12 -13 -12 -11 -13 -12 -11 -11 -12 -12 -11
-10 -10 -10 -10 -10 -10 -10 -10 -10 -10 -9 -9 -9 -9 -9 -9 -9 -9 -9 -9 -9 -9 -10 -10 -9 -9 -10 -11 -10 -11 -12 -12 -12 -13 -13 -13 -11 -11 -11 -11 -11 -11 -11 -11 -11
-10 -10 -10 -10 -10 -11 -10 -10 -10 -10 -9 -9 -9 -9 -9 -9 -9 -9 -8 -9 -9 -10 -10 -10 -10 -10 -11 -11 -11 -11 -10 -11 -11 -13 -13 -12 -11 -12 -13 -11 -11 -11 -11 -11 -12
-10 -10 -10 -10 -11 -11 -11 -10 -11 -11 -10 -9 -9 -9 -9 -9 -9 -10 -9 -9 -9 -9 -10 -10 -10 -11 -11 -10 -11 -12 -11 -11 -11 -12 -13 -13 -12 -13 -12 -12 -11 -11 -11 -11 -11
-11 -10 -10 -10 -11 -11 -11 -12 -12 -12 -12 -10 -9 -9 -9 -9 -9 -10 -10 -9 -9 -9 -10 -8 -10 -10 -10 -10 -11 -11 -11 -12 -12 -11 -11 -12 -12 -12 -13 -13 -13 -12 -12 -11 -11
-13 -12 -11 -11 -11 -11 -11 -12 -13 -13 -11 -10 -9 -9 -10 -10 -9 -10 -10 -10 -10 -10 -10 -10 -10 -10 -11 -11 -11 -11 -12 -11 -12 -12 -11 -12 -13 -12 -12 -13 -13 -13 -12 -11 -12
-18 -17 -14 -13 -13 -12 -12 -13 -13 -13 -10 -10 -10 -9 -9 -10 -10 -10 -10 -10 -9 -9 -9 -10 -9 -10 -10 -10 -11 -11 -11 -11 -12 -13 -12 -13 -12 -12 -12 -13 -12 -12 -13 -12 -12
-21 -20 -20 -18 -16 -15 -14 -14 -14 -10 -10 -11 -11 -10 -10 -10 -10 -10 -10 -10 -10 -10 -10 -10 -10 -10 -9 -9 -10 -9 -10 -11 -13 -12 -11 -12 -11 -12 -13 -13 -12 -12 -13 -13 -13
-23 -23 -22 -22 -22 -20 -18 -16 -11 -10 -11 -13 -15 -12 -11 -11 -10 -11 -10 -10 -10 -9 -10 -10 -9 -10 -10 -10 -10 -10 -10 -11 -12 -12 -12 -11 -12 -13 -13 -13 -13 -13 -13 -13 -13
-22 -23 -23 -23 -24 -23 -22 -17 -12 -12 -13 -17 -15 -16 -15 -11 -11 -11 -10 -10 -10 -10 -10 -11 -10 -10 -10 -10 -11 -11 -11 -11 -11 -12 -13 -12 -12 -12 -12 -13 -13 -13 -12 -13 -13
-22 -21 -23 -24 -25 -24 -23 -17 -15 -14 -16 -17 -17 -17 -16 -15 -14 -12 -11 -10 -10 -10 -10 -11 -11 -11 -11 -9 -10 -10 -11 -10 -11 -13 -12 -12 -11 -12 -13 -13 -13 -14 -12 -13 -13
-23 -23 -24 -24 -25 -24 -22 -20 -19 -16 -20 -18 -16 -15 -15 -16 -15 -14 -11 -11 -11 -11 -10 -10 -11 -12 -9 -9 -10 -11 -10 -11 -11 -11 -13 -12 -11 -12 -12 -13 -13 -13 -12 -12 -13
-25 -25 -26 -25 -25 -25 -24 -22 -22 -19 -21 -20 -17 -16 -16 -16 -15 -15 -13 -12 -13 -12 -10 -11 -11 -10 -13 -11 -10 -11 -11 -11 -11 -11 -13 -13 -12 -13 -13 -13 -12 -14 -12 -13 -13
-26 -26 -26 -26 -26 -26 -25 -23 -23 -23 -22 -20 -18 -18 -15 -14 -14 -14 -15 -14 -14 -12 -11 -12 -11 -10 -10 -9 -10 -10 -10 -10 -10 -10 -11 -12 -12 -12 -12 -13 -14 -14 -12 -12 -13
-26 -27 -27 -27 -27 -26 -25 -25 -24 -24 -23 -22 -21 -19 -18 -17 -16 -15 -15 -15 -15 -13 -12 -12 -12 -11 -11 -13 -11 -11 -10 -10 -10 -10 -11 -11 -11 -13 -13 -13 -13 -13 -12 -13 -13
-27 -27 -27 -27 -26 -26 -26 -26 -25 -25 -25 -23 -22 -20 -19 -18 -17 -16 -16 -15 -15 -13 -13 -12 -11 -11 -11 -11 -13 -11 -10 -10 -10 -11 -11 -11 -12 -13 -13 -13 -13 -14 -13 -12 -12
-27 -27 -27 -27 -27 -27 -26 -26 -25 -26 -25 -24 -24 -22 -20 -19 -18 -16 -15 -15 -15 -16 -14 -13 -12 -12 -12 -11 -11 -13 -10 -10 -10 -10 -10 -10 -10 -13 -13 -13 -13 -13 -12 -12 -12

GFSSW_500_temp_012.txt.gz
Temp
-11 -11 -10 -10 -11 -11 -11 -12 -11 -11 -11 -11 -10 -10 -10 -10 -10 -10 -10 -9 -10 -10 -10 -10 -9 -10 -10 -10 -10 -10 -10 -10 -10 -11 -11 -11 -11 -11 -11 -10 -11 -11 -11 -11 -11
-11 -10 -9 -10 -10 -10 -10 -12 -12 -11 -12 -11 -11 -10 -10 -10 -10 -10 -10 -10 -10 -11 -11 -11 -11 -11 -10 -10 -10 -10 -10 -10 -11 -11 -11 -11 -10 -10 -10 -11 -11 -12 -12 -11 -11
-10 -10 -10 -9 -9 -9 -11 -12 -12 -12 -12 -12 -12 -11 -11 -10 -10 -10 -10 -10 -11 -11 -11 -11 -11 -11 -11 -10 -10 -11 -10 -11 -10 -11 -11 -10 -10 -10 -12 -11 -12 -12 -12 -11 -12
-11 -11 -10 -10 -10 -10 -11 -12 -12 -12 -13 -12 -12 -12 -11 -11 -11 -10 -10 -11 -11 -11 -11 -12 -12 -11 -11 -10 -11 -11 -11 -11 -11 -10 -10 -10 -11 -10 -12 -12 -12 -12 -12 -12 -12
-11 -11 -10 -10 -9 -10 -10 -11 -12 -12 -12 -12 -12 -12 -12 -11 -10 -12 -11 -11 -11 -11 -12 -12 -12 -12 -11 -11 -11 -11 -11 -12 -11 -10 -10 -10 -10 -11 -11 -11 -12 -11 -12 -12 -12
-11 -11 -11 -10 -10 -9 -9 -10 -11 -12 -12 -12 -12 -12 -12 -10 -11 -12 -12 -12 -11 -11 -11 -11 -11 -12 -12 -11 -11 -11 -12 -12 -11 -10 -11 -12 -11 -11 -12 -12 -11 -12 -12 -12 -11
-11 -10 -10 -10 -10 -10 -10 -10 -10 -10 -10 -11 -12 -11 -10 -9 -12 -12 -11 -11 -12 -11 -12 -11 -11 -11 -11 -11 -11 -12 -12 -11 -11 -11 -10 -12 -11 -10 -11 -12 -12 -12 -12 -12 -12
-10 -10 -10 -10 -10 -10 -10 -11 -10 -10 -11 -11 -11 -11 -9 -11 -11 -10 -10 -10 -10 -10 -10 -11 -11 -11 -11 -11 -11 -11 -11 -11 -10 -11 -11 -12 -10 -11 -11 -12 -12 -12 -12 -12 -11
-10 -10 -10 -10 -10 -10 -10 -11 -11 -11 -11 -11 -10 -10 -8 -10 -10 -11 -11 -10 -10 -10 -10 -10 -10 -10 -11 -10 -10 -10 -10 -11 -10 -11 -11 -12 -11 -12 -11 -12 -12 -12 -12 -12 -11
-10 -10 -10 -10 -10 -10 -10 -11 -11 -10 -10 -10 -10 -9 -9 -10 -10 -10 -11 -10 -10 -10 -10 -10 -10 -10 -10 -9 -7 -9 -10 -10 -10 -11 -11 -12 -12 -12 -12 -12 -12 -12 -12 -13 -11
-10 -10 -10 -10 -10 -10 -11 -11 -11 -11 -10 -10 -10 -9 -10 -9 -10 -10 -11 -11 -10 -10 -9 -10 -10 -9 -9 -9 -10 -11 -11 -12 -12 -11 -11 -11 -11 -12 -12 -12 -11 -12 -13 -13 -12
-10 -10 -10 -10 -10 -10 -11 -10 -11 -10 -9 -9 -10 -9 -9 -10 -9 -9 -10 -9 -9 -8 -10 -10 -8 -9 -9 -10 -11 -11 -11 -11 -12 -12 -12 -12 -12 -12 -12 -11 -11 -12 -12 -12 -11
-10 -10 -10 -10 -10 -11 -11 -12 -12 -10 -9 -9 -9 -9 -9 -10 -9 -9 -10 -9 -9 -8 -9 -9 -9 -10 -10 -10 -10 -11 -10 -11 -12 -12 -12 -12 -12 -11 -12 -13 -13 -13 -12 -12 -11
-10 -10 -10 -10 -10 -11 -11 -12 -12 -11 -10 -8 -9 -8 -9 -9 -8 -9 -9 -9 -9 -8 -9 -9 -10 -10 -10 -10 -10 -10 -11 -12 -12 -12 -12 -12 -11 -11 -12 -12 -12 -13 -12 -11 -11
-13 -12 -12 -11 -11 -11 -11 -12 -12 -12 -12 -9 -9 -9 -10 -9 -9 -9 -10 -9 -9 -8 -9 -8 -9 -10 -10 -10 -10 -10 -12 -12 -12 -12 -13 -12 -11 -10 -12 -12 -12 -13 -13 -12 -11
-19 -18 -16 -15 -14 -13 -12 -12 -13 -14 -11 -9 -11 -9 -9 -9 -9 -10 -10 -10 -10 -10 -9 -9 -10 -10 -10 -11 -11 -12 -12 -12 -13 -13 -12 -11 -11 -10 -12 -12 -12 -13 -12 -13 -11
-21 -20 -20 -20 -19 -17 -15 -14 -14 -13 -10 -10 -12 -10 -9 -9 -10 -10 -10 -10 -9 -9 -8 -9 -9 -9 -10 -12 -13 -12 -13 -12 -13 -12 -9 -10 -11 -10 -12 -12 -12 -12 -13 -12 -12
-23 -22 -22 -22 -22 -21 -20 -19 -15 -10 -10 -11 -13 -14 -11 -11 -10 -11 -10 -10 -10 -10 -10 -9 -9 -9 -9 -10 -12 -12 -12 -12 -12 -11 -11 -11 -11 -12 -11 -11 -12 -12 -12 -12 -12
-24 -23 -23 -23 -24 -24 -22 -21 -14 -12 -12 -13 -14 -15 -15 -14 -12 -11 -11 -10 -10 -10 -9 -9 -9 -10 -10 -11 -12 -12 -11 -11 -12 -12 -12 -12 -11 -12 -12 -11 -11 -11 -12 -12 -12
-24 -23 -23 -23 -23 -24 -24 -22 -17 -14 -15 -16 -15 -15 -15 -15 -15 -14 -11 -10 -10 -10 -10 -10 -10 -10 -10 -12 -12 -12 -12 -11 -11 -11 -12 -11 -11 -11 -11 -11 -11 -11 -12 -12 -12
-24 -23 -23 -22 -23 -23 -22 -21 -21 -19 -19 -18 -17 -15 -14 -14 -15 -15 -12 -11 -10 -10 -10 -10 -11 -11 -12 -12 -11 -10 -11 -12 -11 -12 -12 -12 -11 -11 -11 -12 -11 -11 -11 -12 -12
-24 -24 -24 -23 -23 -23 -23 -24 -24 -22 -20 -18 -18 -16 -14 -15 -14 -14 -14 -12 -11 -11 -10 -10 -11 -11 -12 -12 -11 -10 -10 -12 -10 -11 -12 -12 -12 -12 -12 -11 -11 -12 -11 -12 -12
-25 -25 -25 -25 -25 -25 -25 -24 -23 -22 -22 -19 -18 -17 -15 -15 -14 -14 -14 -13 -12 -12 -10 -10 -11 -11 -11 -12 -12 -11 -11 -12 -13 -12 -12 -12 -11 -11 -11 -11 -11 -12 -10 -12 -12
-25 -25 -25 -25 -25 -25 -25 -25 -24 -23 -22 -21 -19 -18 -17 -15 -14 -13 -14 -14 -14 -14 -11 -12 -11 -11 -10 -11 -12 -11 -11 -11 -11 -11 -11 -11 -11 -12 -12 -12 -11 -12 -11 -12 -12
-26 -26 -25 -26 -26 -26 -26 -25 -25 -25 -24 -22 -21 -18 -17 -16 -15 -14 -15 -15 -14 -14 -14 -14 -11 -11 -11 -11 -12 -12 -10 -10 -10 -10 -11 -10 -11 -12 -11 -11 -12 -12 -12 -11 -12
-26 -26 -26 -27 -26 -26 -26 -25 -25 -25 -24 -23 -21 -19 -18 -17 -16 -15 -15 -14 -14 -14 -14 -15 -12 -11 -11 -11 -12 -12 -11 -11 -11 -12 -11 -10 -11 -11 -12 -12 -12 -13 -12 -12 -11
-27 -27 -27 -27 -27 -26 -26 -26 -26 -25 -25 -24 -22 -21 -19 -17 -16 -16 -15 -14 -13 -13 -14 -15 -12 -12 -11 -12 -11 -12 -12 -11 -10 -11 -12 -10 -10 -11 -12 -12 -12 -12 -12 -12 -12

GFSSW_500_temp_015.txt.gz
Temp
-10 -10 -10 -10 -10 -10 -11 -11 -11 -11 -11 -11 -11 -11 -11 -11 -11 -11 -10 -11 -11 -11 -10 -10 -10 -10 -10 -10 -10 -10 -10 -10 -10 -10 -10 -11 -11 -11 -11 -10 -11 -11 -11 -10 -9
-10 -11 -11 -10 -10 -10 -10 -10 -10 -11 -12 -11 -12 -12 -11 -11 -11 -11 -10 -10 -10 -10 -11 -10 -11 -11 -11 -11 -11 -11 -11 -10 -10 -10 -10 -10 -10 -10 -10 -11 -11 -12 -10 -10 -11
-10 -10 -10 -10 -10 -10 -10 -9 -10 -10 -12 -11 -12 -12 -12 -11 -11 -11 -10 -10 -10 -10 -11 -11 -11 -11 -11 -11 -11 -11 -11 -10 -10 -10 -11 -11 -10 -11 -11 -11 -11 -11 -11 -11 -12
-11 -11 -11 -11 -11 -11 -10 -10 -10 -10 -11 -12 -12 -12 -12 -12 -11 -11 -11 -11 -11 -11 -11 -11 -11 -12 -12 -12 -11 -12 -11 -10 -10 -11 -10 -10 -10 -10 -11 -11 -12 -12 -11 -11 -12
-10 -11 -11 -12 -12 -11 -11 -11 -10 -11 -11 -12 -12 -12 -12 -11 -10 -11 -11 -11 -11 -12 -12 -12 -12 -12 -12 -12 -12 -12 -11 -11 -11 -11 -11 -11 -10 -10 -10 -11 -12 -12 -12 -12 -12
-10 -10 -11 -11 -12 -12 -11 -11 -11 -11 -11 -11 -11 -12 -12 -8 -12 -12 -12 -11 -11 -12 -12 -12 -12 -12 -12 -11 -11 -11 -11 -11 -11 -11 -11 -11 -11 -10 -11 -12 -13 -12 -11 -12 -12
-10 -10 -10 -10 -11 -11 -11 -11 -10 -10 -10 -10 -11 -12 -10 -8 -11 -12 -12 -12 -12 -12 -12 -12 -12 -12 -12 -11 -11 -11 -10 -10 -10 -11 -10 -11 -10 -10 -12 -12 -12 -11 -11 -11 -11
-10 -10 -10 -10 -10 -10 -11 -11 -10 -11 -10 -10 -10 -10 -8 -9 -11 -12 -12 -12 -12 -12 -12 -12 -12 -11 -11 -11 -11 -10 -10 -9 -9 -11 -10 -11 -9 -12 -12 -11 -12 -12 -12 -11 -12
-10 -10 -10 -11 -10 -10 -10 -10 -11 -10 -10 -10 -10 -9 -8 -9 -10 -12 -12 -12 -11 -11 -11 -13 -12 -11 -11 -10 -9 -9 -8 -9 -9 -11 -10 -12 -11 -12 -12 -12 -12 -12 -12 -12 -13
-9 -10 -10 -10 -10 -10 -11 -11 -11 -10 -11 -10 -10 -9 -8 -10 -10 -11 -11 -12 -11 -11 -11 -10 -11 -10 -9 -9 -8 -10 -10 -10 -10 -11 -11 -11 -11 -11 -11 -12 -11 -12 -12 -13 -12
-10 -10 -10 -10 -10 -10 -10 -11 -12 -11 -10 -9 -9 -9 -9 -9 -9 -10 -11 -11 -11 -11 -10 -10 -9 -8 -9 -10 -10 -10 -11 -11 -10 -10 -12 -11 -11 -11 -12 -11 -11 -12 -13 -12 -12
-10 -10 -10 -10 -10 -10 -10 -11 -12 -11 -10 -9 -9 -9 -10 -11 -9 -9 -11 -11 -11 -10 -10 -9 -8 -9 -10 -10 -10 -10 -11 -11 -11 -11 -12 -11 -11 -12 -12 -12 -12 -12 -13 -11 -11
-11 -11 -11 -11 -11 -11 -10 -11 -11 -11 -10 -9 -9 -9 -9 -11 -9 -10 -10 -10 -10 -10 -9 -9 -8 -10 -10 -10 -10 -10 -10 -11 -11 -11 -12 -12 -12 -11 -11 -12 -12 -12 -12 -11 -11
-13 -14 -13 -13 -12 -12 -12 -12 -11 -11 -10 -8 -9 -8 -10 -10 -9 -10 -10 -10 -10 -9 -10 -9 -10 -9 -10 -10 -10 -10 -11 -11 -11 -11 -11 -11 -10 -10 -10 -11 -12 -12 -11 -12 -11
-19 -18 -18 -17 -16 -15 -13 -12 -12 -11 -11 -9 -9 -10 -10 -10 -9 -11 -11 -10 -10 -9 -9 -8 -9 -9 -9 -9 -10 -10 -11 -11 -12 -12 -12 -12 -11 -9 -11 -11 -11 -11 -11 -11 -11
-22 -22 -22 -22 -21 -19 -16 -15 -14 -13 -10 -9 -11 -9 -10 -10 -10 -11 -10 -10 -11 -10 -9 -9 -9 -9 -9 -10 -11 -11 -11 -11 -12 -12 -12 -11 -11 -10 -11 -11 -11 -11 -11 -12 -12
-22 -22 -22 -22 -22 -21 -20 -19 -17 -13 -10 -10 -12 -12 -12 -11 -11 -11 -11 -11 -9 -9 -8 -9 -8 -9 -9 -9 -11 -11 -13 -12 -13 -12 -10 -10 -12 -11 -11 -11 -12 -11 -11 -12 -11
-23 -23 -23 -23 -24 -23 -22 -21 -18 -12 -12 -12 -15 -15 -13 -14 -13 -12 -12 -11 -10 -10 -10 -9 -9 -8 -9 -9 -9 -10 -13 -12 -12 -11 -10 -12 -11 -10 -11 -12 -11 -12 -11 -11 -11
-24 -24 -24 -24 -24 -24 -24 -22 -18 -15 -14 -15 -16 -15 -16 -16 -16 -15 -13 -11 -10 -10 -9 -9 -9 -9 -10 -10 -10 -11 -11 -11 -12 -12 -12 -12 -11 -12 -11 -11 -12 -11 -11 -11 -11
-24 -25 -24 -24 -23 -23 -22 -21 -20 -20 -20 -20 -17 -16 -15 -16 -15 -15 -15 -11 -11 -11 -11 -10 -10 -10 -10 -11 -10 -11 -11 -13 -12 -12 -11 -10 -11 -11 -11 -12 -11 -11 -10 -11 -11
-24 -24 -24 -24 -24 -23 -22 -21 -23 -24 -24 -22 -18 -17 -16 -16 -15 -15 -11 -11 -11 -11 -11 -11 -11 -10 -11 -10 -10 -11 -13 -13 -13 -12 -11 -11 -11 -11 -11 -12 -11 -10 -11 -12 -12
-24 -24 -25 -25 -25 -23 -23 -24 -25 -25 -24 -22 -20 -16 -17 -16 -14 -14 -11 -10 -12 -12 -11 -10 -11 -11 -10 -10 -11 -11 -12 -12 -12 -10 -10 -11 -11 -11 -11 -11 -11 -11 -11 -11 -11
-25 -24 -25 -25 -25 -25 -25 -25 -24 -24 -24 -24 -22 -18 -18 -16 -15 -14 -13 -14 -15 -14 -12 -12 -12 -11 -11 -11 -12 -12 -11 -12 -12 -12 -11 -11 -11 -12 -12 -12 -11 -11 -11 -11 -11
-25 -25 -25 -24 -25 -25 -25 -25 -25 -25 -24 -24 -23 -23 -19 -16 -15 -14 -14 -15 -15 -14 -13 -14 -12 -11 -10 -10 -10 -11 -11 -12 -12 -11 -10 -10 -11 -12 -12 -12 -11 -11 -10 -12 -11
-26 -26 -26 -26 -26 -25 -25 -25 -25 -25 -25 -25 -23 -23 -20 -17 -16 -14 -15 -15 -15 -14 -14 -14 -12 -11 -11 -11 -11 -12 -11 -10 -10 -10 -10 -10 -11 -12 -11 -12 -11 -11 -10 -11 -11
-27 -26 -26 -26 -26 -26 -26 -26 -25 -25 -25 -25 -23 -22 -21 -18 -17 -15 -14 -15 -15 -14 -14 -13 -11 -11 -11 -11 -11 -12 -12 -11 -11 -11 -10 -10 -11 -11 -12 -12 -12 -11 -10 -11 -11
-27 -27 -27 -27 -27 -26 -26 -26 -26 -25 -25 -25 -25 -23 -22 -20 -18 -17 -15 -15 -15 -14 -14 -13 -11 -12 -11 -12 -12 -12 -12 -11 -10 -11 -11 -10 -10 -11 -12 -12 -12 -11 -10 -10 -11

GFSSW_500_temp_021.txt.gz
Temp
-10 -10 -10 -10 -10 -10 -10 -10 -10 -11 -11 -11 -11 -11 -11 -10 -10 -10 -11 -12 -11 -11 -11 -11 -11 -11 -11 -11 -11 -10 -10 -10 -10 -11 -10 -10 -11 -11 -12 -11 -11 -11 -10 -10 -10
-10 -10 -10 -10 -10 -10 -10 -10 -10 -10 -10 -11 -11 -11 -11 -10 -10 -10 -12 -12 -11 -11 -11 -11 -12 -12 -12 -11 -11 -10 -10 -10 -11 -11 -11 -10 -11 -11 -12 -12 -11 -11 -11 -11 -11
-10 -9 -9 -9 -9 -9 -10 -10 -10 -10 -10 -10 -10 -11 -11 -11 -11 -11 -12 -12 -12 -12 -12 -12 -12 -11 -11 -11 -11 -11 -11 -11 -11 -11 -11 -11 -10 -11 -11 -11 -11 -12 -11 -10 -11
-10 -10 -10 -10 -10 -10 -9 -9 -10 -10 -10 -10 -10 -10 -11 -11 -9 -11 -12 -12 -12 -12 -12 -12 -12 -12 -12 -12 -12 -11 -11 -11 -11 -11 -11 -11 -11 -10 -10 -11 -12 -11 -11 -11 -11
-9 -9 -9 -9 -9 -10 -10 -10 -9 -9 -10 -10 -11 -11 -11 -10 -9 -11 -12 -12 -12 -12 -13 -12 -12 -12 -12 -12 -12 -12 -12 -12 -12 -11 -11 -11 -11 -11 -9 -10 -11 -11 -10 -11 -12
-9 -9 -9 -9 -9 -9 -9 -9 -10 -10 -10 -10 -11 -10 -10 -9 -10 -12 -12 -12 -12 -12 -13 -13 -13 -13 -12 -12 -12 -12 -12 -11 -12 -11 -11 -11 -11 -11 -9 -11 -11 -10 -10 -12 -12
-9 -9 -9 -9 -9 -9 -9 -9 -9 -10 -10 -10 -10 -10 -9 -8 -11 -11 -11 -11 -12 -13 -13 -13 -13 -13 -12 -12 -12 -12 -12 -12 -11 -10 -11 -12 -10 -9 -10 -11 -10 -10 -11 -12 -12
-9 -9 -9 -9 -9 -9 -9 -9 -9 -10 -10 -10 -10 -10 -7 -10 -11 -11 -11 -11 -11 -11 -12 -13 -13 -12 -12 -13 -12 -12 -11 -10 -10 -12 -11 -13 -9 -10 -11 -11 -9 -10 -11 -12 -12
-9 -9 -9 -9 -10 -10 -10 -9 -9 -9 -10 -10 -10 -9 -7 -10 -11 -12 -11 -11 -12 -12 -13 -13 -13 -12 -12 -11 -11 -11 -9 -10 -11 -12 -12 -12 -9 -11 -11 -10 -10 -11 -12 -12 -12
-9 -9 -9 -9 -9 -10 -11 -10 -10 -10 -10 -10 -9 -9 -8 -10 -11 -11 -11 -11 -12 -12 -13 -13 -13 -11 -11 -11 -9 -10 -11 -12 -10 -11 -12 -11 -8 -10 -10 -11 -11 -11 -12 -12 -12
-8 -8 -10 -11 -11 -11 -11 -11 -11 -11 -10 -10 -9 -9 -9 -10 -10 -11 -11 -11 -12 -12 -11 -13 -13 -9 -9 -10 -11 -13 -13 -11 -10 -12 -11 -10 -10 -9 -10 -9 -11 -11 -11 -11 -12
-9 -11 -13 -14 -14 -13 -13 -13 -12 -11 -11 -11 -10 -9 -10 -10 -10 -10 -11 -11 -12 -11 -12 -13 -9 -10 -11 -11 -12 -12 -12 -10 -10 -12 -11 -10 -10 -10 -9 -10 -10 -11 -11 -11 -12
-17 -17 -18 -19 -19 -19 -17 -14 -14 -13 -12 -12 -11 -10 -10 -11 -10 -11 -11 -11 -11 -12 -12 -11 -9 -12 -12 -12 -12 -11 -11 -11 -11 -12 -12 -11 -10 -10 -10 -11 -11 -11 -11 -11 -11
-19 -20 -21 -22 -22 -22 -22 -21 -19 -15 -13 -12 -13 -12 -11 -12 -10 -12 -11 -11 -11 -11 -12 -11 -12 -11 -12 -11 -12 -11 -11 -12 -11 -11 -11 -11 -9 -10 -10 -11 -11 -11 -11 -11 -12
-21 -22 -23 -23 -23 -23 -23 -23 -22 -21 -16 -15 -14 -13 -12 -11 -11 -12 -13 -11 -11 -11 -12 -9 -11 -10 -11 -10 -11 -11 -12 -11 -11 -11 -11 -11 -10 -9 -11 -10 -12 -10 -11 -12 -12
-23 -23 -23 -24 -24 -23 -23 -23 -23 -23 -19 -18 -17 -15 -13 -12 -11 -12 -12 -12 -12 -12 -11 -11 -11 -12 -10 -11 -11 -12 -11 -11 -11 -11 -10 -11 -10 -8 -10 -12 -10 -11 -11 -11 -11
-23 -24 -24 -24 -24 -24 -24 -24 -24 -24 -22 -21 -18 -16 -14 -13 -12 -12 -12 -12 -10 -11 -10 -11 -10 -11 -11 -10 -11 -11 -11 -11 -10 -10 -9 -11 -10 -9 -10 -11 -10 -11 -11 -11 -11
-24 -24 -24 -24 -24 -24 -25 -25 -24 -23 -23 -21 -21 -19 -16 -15 -14 -12 -12 -11 -11 -11 -11 -11 -10 -10 -10 -10 -10 -10 -11 -10 -9 -10 -10 -10 -8 -10 -11 -11 -10 -11 -11 -12 -11
-24 -24 -24 -25 -25 -25 -25 -25 -24 -24 -23 -22 -21 -21 -19 -17 -15 -13 -12 -12 -12 -11 -11 -11 -11 -12 -11 -11 -11 -10 -10 -11 -11 -10 -10 -10 -9 -11 -11 -9 -11 -11 -11 -12 -12
-25 -25 -25 -25 -25 -25 -26 -25 -25 -25 -25 -24 -23 -22 -20 -18 -16 -14 -13 -12 -12 -13 -13 -12 -11 -11 -12 -12 -11 -11 -11 -11 -10 -10 -10 -10 -9 -10 -10 -10 -11 -11 -11 -12 -12
-25 -25 -25 -26 -26 -26 -26 -25 -25 -25 -25 -25 -24 -22 -20 -19 -17 -15 -14 -13 -13 -13 -12 -12 -12 -12 -12 -10 -10 -10 -9 -11 -10 -10 -9 -9 -9 -9 -11 -11 -11 -11 -12 -13 -12
-25 -26 -26 -26 -26 -26 -26 -26 -26 -25 -24 -23 -23 -21 -21 -19 -18 -17 -15 -14 -12 -12 -12 -12 -11 -11 -11 -11 -11 -11 -10 -10 -9 -9 -10 -10 -9 -10 -10 -10 -10 -11 -12 -12 -11
-26 -26 -26 -26 -26 -26 -26 -26 -26 -26 -25 -25 -23 -22 -22 -20 -18 -18 -17 -14 -13 -13 -12 -12 -11 -12 -12 -11 -11 -10 -9 -10 -10 -10 -10 -10 -10 -10 -10 -10 -10 -12 -12 -11 -11
-26 -27 -26 -26 -26 -26 -26 -26 -26 -26 -26 -25 -24 -23 -22 -21 -19 -17 -18 -16 -15 -13 -12 -11 -10 -10 -10 -10 -10 -10 -10 -10 -11 -11 -10 -9 -11 -10 -10 -10 -11 -11 -12 -11 -12
-26 -27 -26 -27 -26 -26 -26 -26 -26 -25 -25 -25 -25 -24 -23 -22 -20 -17 -18 -17 -16 -13 -12 -11 -10 -10 -10 -11 -11 -10 -10 -10 -10 -9 -10 -9 -10 -10 -10 -11 -11 -11 -11 -12 -12
-26 -27 -27 -27 -27 -27 -27 -26 -26 -26 -26 -25 -25 -25 -24 -23 -22 -20 -18 -18 -17 -14 -13 -11 -11 -10 -10 -11 -10 -10 -11 -11 -10 -10 -10 -10 -11 -11 -11 -11 -10 -11 -12 -12 -12
-26 -27 -27 -27 -27 -27 -27 -26 -26 -26 -26 -26 -25 -25 -25 -24 -22 -21 -19 -18 -17 -16 -13 -12 -11 -10 -10 -11 -11 -11 -10 -10 -10 -10 -9 -9 -10 -11 -11 -10 -10 -10 -11 -12 -11

GFSSW_500_temp_024.txt.gz
Temp
-10 -10 -11 -11 -10 -9 -10 -10 -10 -10 -10 -11 -10 -11 -11 -11 -11 -11 -11 -12 -11 -10 -11 -11 -11 -11 -11 -11 -11 -11 -9 -9 -9 -11 -10 -10 -11 -11 -11 -11 -12 -11 -11 -11 -11
-10 -10 -10 -11 -11 -11 -10 -10 -10 -10 -10 -10 -10 -10 -10 -10 -10 -10 -12 -12 -12 -12 -11 -11 -11 -11 -11 -11 -10 -10 -10 -10 -10 -11 -10 -11 -11 -11 -11 -11 -11 -11 -12 -11 -11
-10 -10 -10 -10 -10 -11 -10 -10 -10 -10 -10 -10 -10 -10 -10 -10 -9 -10 -12 -12 -12 -12 -12 -11 -11 -11 -10 -11 -10 -10 -9 -11 -11 -11 -11 -11 -11 -11 -10 -10 -11 -11 -12 -12 -11
-10 -10 -10 -10 -10 -10 -10 -10 -10 -11 -10 -10 -10 -10 -10 -10 -9 -10 -12 -12 -12 -12 -11 -12 -12 -11 -11 -11 -11 -11 -11 -12 -11 -12 -11 -11 -11 -10 -11 -11 -11 -11 -12 -12 -11
-10 -10 -9 -9 -9 -9 -10 -10 -10 -10 -10 -10 -10 -9 -9 -9 -8 -11 -11 -12 -12 -12 -12 -12 -12 -12 -11 -11 -12 -11 -11 -12 -12 -12 -12 -11 -10 -11 -11 -11 -11 -12 -12 -12 -12
-9 -9 -9 -9 -9 -9 -9 -9 -9 -9 -10 -10 -10 -10 -9 -8 -10 -11 -10 -11 -12 -12 -13 -13 -12 -12 -12 -12 -12 -12 -12 -12 -12 -12 -12 -10 -11 -12 -11 -12 -12 -12 -12 -12 -11
-9 -9 -9 -9 -9 -9 -9 -9 -9 -9 -9 -9 -9 -9 -9 -7 -10 -11 -11 -11 -12 -12 -13 -13 -13 -13 -12 -12 -12 -12 -11 -11 -11 -12 -10 -12 -11 -11 -11 -12 -12 -11 -12 -12 -11
-9 -9 -9 -9 -9 -9 -9 -9 -9 -9 -9 -9 -9 -9 -8 -8 -10 -11 -12 -12 -12 -12 -12 -13 -13 -13 -12 -12 -12 -12 -12 -10 -10 -12 -11 -12 -10 -10 -12 -12 -12 -11 -12 -11 -10
-9 -9 -9 -9 -9 -9 -9 -9 -9 -9 -9 -9 -9 -9 -8 -9 -10 -12 -11 -12 -13 -12 -12 -13 -13 -12 -12 -12 -12 -12 -10 -9 -10 -11 -12 -12 -11 -10 -12 -12 -11 -10 -10 -11 -10
-8 -8 -8 -8 -8 -9 -9 -9 -9 -9 -9 -9 -9 -9 -9 -9 -10 -11 -12 -11 -13 -13 -13 -12 -12 -11 -10 -11 -9 -9 -10 -10 -11 -11 -12 -13 -12 -10 -11 -12 -11 -10 -10 -10 -10
-8 -8 -8 -8 -8 -9 -9 -10 -9 -9 -10 -10 -10 -10 -10 -10 -10 -10 -11 -12 -13 -13 -12 -12 -12 -10 -9 -9 -10 -11 -11 -10 -11 -11 -13 -12 -12 -10 -10 -11 -10 -10 -9 -10 -11
-8 -8 -9 -9 -11 -13 -14 -14 -13 -12 -11 -12 -11 -10 -10 -10 -10 -11 -12 -12 -12 -12 -13 -13 -10 -10 -10 -11 -12 -12 -12 -11 -11 -13 -12 -12 -11 -10 -10 -11 -11 -10 -10 -11 -11
-10 -11 -13 -16 -17 -18 -18 -17 -17 -17 -16 -13 -13 -12 -12 -11 -10 -11 -12 -12 -12 -13 -13 -13 -10 -12 -12 -12 -12 -11 -11 -11 -13 -13 -12 -13 -10 -11 -11 -11 -11 -10 -10 -10 -11
-15 -18 -19 -19 -20 -20 -20 -21 -21 -21 -19 -17 -16 -16 -13 -12 -10 -12 -12 -12 -12 -13 -13 -12 -12 -12 -11 -11 -12 -12 -12 -12 -13 -13 -12 -12 -9 -10 -10 -11 -11 -10 -11 -10 -11
-20 -20 -20 -20 -22 -23 -23 -23 -23 -23 -22 -21 -20 -18 -16 -13 -12 -12 -13 -13 -12 -12 -13 -10 -11 -11 -11 -11 -13 -11 -13 -13 -13 -12 -12 -11 -10 -9 -11 -11 -11 -11 -10 -11 -11
-21 -21 -22 -22 -23 -23 -24 -24 -24 -24 -23 -22 -22 -21 -19 -16 -13 -12 -13 -12 -13 -13 -12 -11 -12 -12 -12 -13 -13 -13 -13 -13 -13 -12 -11 -10 -11 -8 -10 -11 -11 -11 -11 -11 -12
-22 -23 -23 -23 -24 -24 -25 -25 -25 -24 -23 -24 -24 -23 -21 -18 -17 -14 -13 -12 -12 -12 -11 -11 -11 -11 -12 -13 -12 -12 -12 -12 -12 -11 -10 -10 -11 -8 -11 -11 -11 -11 -11 -12 -12
-23 -23 -24 -24 -24 -25 -25 -25 -25 -24 -24 -25 -24 -23 -22 -20 -18 -16 -15 -14 -13 -13 -12 -12 -12 -11 -11 -11 -12 -12 -12 -12 -11 -11 -11 -10 -9 -8 -11 -11 -10 -11 -12 -11 -11
-24 -24 -24 -25 -25 -25 -25 -25 -25 -25 -25 -24 -24 -23 -22 -21 -20 -17 -17 -15 -14 -14 -12 -12 -12 -12 -12 -12 -12 -11 -11 -12 -11 -11 -10 -9 -9 -9 -11 -11 -10 -11 -12 -11 -11
-25 -25 -25 -25 -26 -26 -26 -26 -26 -26 -26 -25 -25 -24 -22 -21 -21 -20 -17 -16 -15 -14 -12 -12 -12 -12 -12 -13 -12 -11 -12 -11 -10 -10 -9 -9 -9 -10 -11 -11 -11 -11 -11 -11 -11
-26 -26 -26 -26 -26 -27 -26 -26 -26 -26 -25 -25 -24 -23 -23 -22 -20 -21 -20 -17 -15 -14 -13 -12 -12 -12 -12 -11 -11 -11 -11 -10 -10 -10 -10 -9 -9 -10 -11 -10 -11 -11 -11 -11 -11
-26 -26 -26 -26 -26 -26 -26 -26 -26 -26 -25 -25 -25 -24 -23 -23 -21 -21 -20 -18 -16 -14 -13 -13 -12 -12 -12 -12 -12 -11 -11 -10 -9 -9 -9 -9 -9 -10 -11 -11 -11 -12 -11 -11 -11
-26 -26 -26 -26 -26 -26 -26 -26 -26 -26 -26 -25 -24 -24 -23 -24 -21 -21 -20 -20 -18 -16 -13 -13 -12 -12 -12 -12 -11 -10 -9 -9 -10 -10 -9 -10 -10 -11 -11 -10 -11 -11 -11 -11 -11
-26 -26 -27 -27 -27 -27 -26 -26 -26 -26 -25 -25 -25 -25 -24 -23 -22 -21 -20 -20 -19 -17 -15 -12 -12 -12 -11 -10 -11 -10 -11 -11 -11 -10 -9 -9 -12 -11 -11 -10 -11 -11 -11 -11 -11
-26 -27 -27 -27 -27 -27 -26 -26 -26 -25 -25 -25 -25 -25 -24 -24 -23 -21 -20 -19 -19 -18 -16 -13 -12 -11 -11 -11 -11 -11 -11 -10 -9 -9 -10 -10 -11 -11 -10 -10 -11 -12 -11 -11 -11
-26 -26 -27 -27 -27 -27 -27 -26 -26 -26 -26 -26 -26 -25 -24 -24 -24 -23 -20 -19 -19 -19 -16 -13 -13 -11 -11 -12 -11 -10 -10 -10 -10 -10 -10 -11 -11 -12 -11 -11 -13 -12 -11 -12 -11
-25 -25 -26 -26 -27 -27 -26 -26 -26 -26 -26 -25 -26 -26 -25 -24 -25 -24 -21 -20 -19 -19 -17 -14 -13 -12 -12 -12 -12 -11 -9 -9 -10 -10 -10 -10 -11 -11 -11 -11 -12 -12 -12 -13 -12

GFSSW_500_temp_027.txt.gz
Temp
-11 -11 -10 -10 -11 -10 -11 -10 -10 -10 -10 -11 -11 -10 -10 -11 -11 -11 -12 -12 -11 -11 -11 -11 -11 -11 -11 -11 -11 -11 -10 -10 -9 -9 -10 -10 -11 -11 -11 -11 -11 -10 -11 -11 -11
-11 -11 -11 -11 -11 -11 -10 -10 -10 -10 -10 -10 -10 -10 -11 -11 -10 -11 -12 -12 -12 -11 -11 -11 -11 -11 -11 -11 -11 -11 -10 -10 -9 -10 -10 -10 -11 -10 -10 -11 -11 -11 -11 -11 -12
-10 -10 -10 -10 -10 -10 -11 -11 -10 -11 -11 -10 -10 -10 -10 -10 -10 -11 -12 -12 -12 -11 -12 -12 -12 -11 -11 -11 -11 -10 -9 -10 -10 -11 -11 -11 -11 -11 -10 -10 -11 -11 -11 -12 -12
-10 -10 -10 -10 -10 -10 -10 -10 -11 -11 -10 -10 -10 -10 -10 -10 -10 -10 -11 -12 -12 -12 -12 -12 -12 -12 -11 -10 -11 -11 -10 -11 -11 -11 -11 -11 -10 -10 -11 -11 -10 -11 -11 -11 -12
-10 -10 -10 -10 -10 -10 -10 -10 -10 -10 -10 -10 -10 -10 -10 -10 -9 -10 -10 -11 -12 -12 -12 -12 -12 -13 -11 -11 -12 -11 -11 -11 -11 -11 -11 -11 -10 -10 -10 -11 -12 -12 -11 -12 -12
-10 -10 -10 -10 -10 -10 -10 -10 -10 -10 -10 -10 -10 -10 -10 -9 -10 -11 -11 -11 -11 -12 -13 -13 -13 -13 -12 -11 -11 -11 -10 -11 -11 -11 -11 -11 -11 -10 -10 -12 -12 -12 -12 -12 -11
-10 -10 -10 -9 -9 -9 -9 -9 -9 -9 -9 -9 -10 -10 -9 -9 -10 -11 -11 -11 -11 -12 -12 -13 -13 -13 -12 -11 -11 -11 -11 -11 -11 -11 -10 -11 -9 -11 -11 -11 -12 -11 -11 -11 -10
-10 -10 -9 -9 -9 -9 -9 -9 -9 -9 -9 -9 -9 -9 -9 -10 -10 -11 -11 -11 -11 -11 -12 -13 -13 -13 -12 -11 -12 -11 -11 -11 -11 -11 -10 -12 -8 -11 -11 -11 -12 -11 -11 -9 -10
-10 -9 -9 -9 -9 -9 -9 -9 -9 -9 -9 -9 -9 -9 -8 -9 -10 -11 -11 -11 -12 -11 -11 -12 -12 -12 -12 -12 -12 -11 -11 -10 -10 -10 -12 -11 -10 -11 -12 -12 -11 -11 -10 -10 -10
-9 -9 -9 -9 -9 -9 -8 -8 -8 -8 -9 -9 -8 -9 -9 -9 -9 -10 -11 -11 -12 -12 -12 -12 -12 -12 -11 -11 -9 -8 -9 -9 -10 -10 -12 -11 -10 -11 -13 -12 -12 -11 -10 -10 -10
-9 -9 -9 -9 -9 -8 -8 -8 -8 -8 -8 -8 -9 -8 -9 -9 -9 -9 -11 -11 -12 -12 -12 -12 -12 -10 -10 -10 -11 -11 -11 -11 -11 -11 -12 -11 -11 -11 -13 -13 -11 -11 -10 -10 -10
-10 -9 -9 -9 -9 -9 -9 -9 -10 -10 -9 -10 -9 -9 -10 -10 -9 -10 -10 -11 -12 -11 -12 -13 -11 -9 -11 -12 -12 -12 -11 -10 -11 -12 -12 -12 -11 -12 -13 -12 -11 -10 -10 -10 -10
-10 -10 -11 -12 -13 -14 -14 -16 -16 -16 -12 -13 -15 -13 -12 -11 -9 -11 -11 -11 -11 -12 -12 -12 -8 -12 -12 -12 -12 -11 -11 -11 -11 -12 -13 -12 -11 -12 -13 -11 -11 -10 -10 -11 -11
-12 -14 -16 -18 -19 -20 -20 -20 -19 -19 -18 -18 -18 -18 -16 -14 -12 -12 -12 -12 -11 -12 -12 -12 -11 -12 -12 -12 -12 -11 -11 -12 -13 -13 -12 -13 -10 -11 -11 -11 -10 -10 -10 -11 -11
-17 -19 -20 -21 -21 -21 -21 -21 -21 -21 -21 -20 -21 -20 -19 -18 -16 -14 -15 -14 -13 -12 -12 -10 -11 -11 -12 -11 -12 -11 -13 -13 -13 -13 -12 -12 -11 -8 -11 -10 -10 -10 -11 -11 -11
-20 -21 -22 -22 -23 -22 -23 -23 -23 -23 -22 -23 -22 -22 -22 -21 -20 -18 -17 -16 -15 -15 -13 -12 -12 -13 -11 -12 -12 -13 -13 -12 -12 -12 -12 -10 -12 -9 -10 -11 -11 -11 -12 -11 -11
-22 -23 -23 -23 -23 -24 -24 -24 -24 -23 -24 -24 -24 -24 -24 -23 -22 -21 -19 -18 -16 -15 -14 -13 -11 -11 -12 -12 -12 -13 -13 -11 -12 -13 -9 -10 -11 -9 -10 -11 -10 -11 -11 -11 -11
-23 -24 -24 -25 -24 -25 -25 -25 -25 -25 -25 -25 -25 -25 -24 -24 -22 -22 -21 -19 -17 -16 -16 -13 -12 -11 -11 -11 -11 -12 -12 -11 -11 -11 -10 -11 -9 -8 -10 -11 -11 -11 -10 -11 -11
-24 -25 -25 -26 -26 -26 -26 -26 -26 -26 -26 -25 -25 -25 -25 -23 -22 -22 -22 -20 -18 -18 -16 -14 -12 -12 -12 -12 -12 -12 -11 -12 -12 -11 -11 -10 -9 -9 -10 -11 -10 -11 -11 -11 -12
-25 -25 -26 -27 -26 -27 -26 -26 -26 -26 -26 -26 -25 -25 -24 -24 -22 -22 -22 -22 -18 -18 -16 -14 -12 -13 -13 -13 -12 -11 -13 -12 -11 -10 -10 -9 -9 -9 -10 -10 -10 -10 -11 -12 -11
-25 -26 -26 -27 -26 -27 -26 -26 -26 -26 -26 -26 -26 -25 -24 -24 -23 -22 -21 -21 -21 -18 -15 -15 -13 -13 -14 -11 -11 -12 -11 -11 -12 -11 -10 -9 -8 -10 -10 -10 -11 -11 -11 -11 -11
-25 -26 -27 -27 -26 -26 -26 -26 -26 -26 -26 -26 -26 -25 -25 -25 -24 -23 -22 -20 -20 -18 -16 -16 -13 -14 -12 -12 -12 -12 -12 -11 -11 -10 -10 -10 -9 -10 -11 -11 -11 -11 -11 -11 -11
-25 -26 -27 -27 -27 -27 -27 -26 -26 -26 -25 -26 -26 -26 -26 -25 -24 -23 -22 -21 -20 -19 -17 -16 -14 -15 -14 -13 -13 -11 -11 -11 -12 -11 -10 -10 -10 -11 -11 -11 -11 -11 -11 -11 -10
-25 -26 -27 -27 -27 -27 -26 -26 -26 -26 -25 -26 -26 -26 -25 -25 -24 -23 -22 -21 -20 -20 -19 -16 -15 -13 -14 -12 -12 -11 -11 -11 -11 -10 -10 -9 -11 -11 -11 -11 -12 -12 -11 -11 -11
-25 -25 -26 -27 -27 -27 -26 -26 -26 -26 -26 -26 -26 -26 -26 -25 -25 -24 -22 -21 -20 -20 -19 -16 -15 -13 -13 -13 -12 -11 -11 -10 -10 -10 -10 -10 -11 -11 -12 -12 -11 -12 -12 -11 -11
-24 -25 -25 -26 -26 -26 -26 -26 -26 -26 -26 -26 -26 -26 -26 -25 -25 -24 -23 -22 -20 -20 -20 -17 -16 -13 -13 -13 -12 -11 -11 -11 -10 -11 -10 -10 -11 -11 -12 -12 -12 -12 -12 -12 -11
-24 -25 -25 -25 -25 -26 -26 -26 -26 -26 -26 -26 -26 -26 -25 -25 -25 -24 -24 -22 -21 -20 -20 -19 -16 -14 -15 -13 -13 -12 -11 -10 -10 -11 -10 -11 -12 -12 -11 -12 -12 -12 -12 -12 -11

GFSSW_500_temp_030.txt.gz
Temp
-12 -11 -11 -11 -11 -11 -10 -10 -10 -10 -10 -11 -11 -11 -11 -11 -11 -11 -11 -12 -11 -11 -11 -12 -11 -11 -10 -10 -10 -11 -10 -10 -10 -10 -10 -10 -10 -10 -10 -10 -10 -11 -10 -11 -11
-11 -11 -11 -11 -11 -11 -11 -11 -10 -10 -10 -10 -11 -11 -11 -11 -11 -11 -11 -12 -11 -12 -12 -12 -11 -11 -11 -11 -10 -10 -10 -10 -10 -10 -11 -11 -10 -11 -10 -10 -10 -11 -11 -11 -11
-11 -11 -11 -11 -11 -11 -11 -11 -11 -11 -10 -10 -10 -11 -11 -11 -11 -11 -11 -12 -12 -12 -13 -12 -12 -12 -11 -11 -10 -10 -10 -10 -10 -11 -11 -10 -10 -11 -10 -10 -10 -11 -11 -12 -12
-11 -10 -10 -10 -10 -11 -11 -11 -11 -10 -10 -10 -10 -11 -11 -11 -10 -10 -11 -11 -12 -12 -12 -12 -12 -11 -11 -11 -11 -10 -10 -11 -11 -11 -11 -11 -11 -11 -10 -9 -10 -11 -11 -11 -11
-10 -10 -10 -10 -10 -10 -10 -10 -10 -10 -10 -10 -10 -10 -11 -11 -10 -11 -11 -11 -12 -12 -12 -12 -12 -12 -11 -11 -11 -11 -11 -11 -11 -11 -11 -11 -11 -10 -9 -9 -10 -11 -11 -11 -11
-10 -10 -10 -10 -10 -10 -10 -10 -10 -10 -10 -10 -10 -10 -10 -10 -10 -11 -11 -11 -11 -12 -12 -12 -12 -11 -11 -12 -11 -11 -11 -11 -11 -10 -11 -11 -11 -10 -9 -10 -10 -11 -11 -11 -11
-10 -10 -10 -10 -10 -9 -9 -9 -9 -9 -10 -10 -10 -10 -10 -9 -10 -10 -10 -10 -10 -11 -12 -12 -12 -12 -11 -11 -11 -11 -11 -12 -10 -11 -11 -11 -10 -9 -10 -10 -11 -10 -11 -11 -11
-11 -10 -10 -10 -10 -10 -10 -9 -9 -9 -9 -9 -9 -9 -9 -10 -10 -10 -10 -10 -10 -10 -11 -11 -12 -12 -11 -11 -10 -10 -11 -11 -11 -10 -10 -11 -8 -10 -11 -10 -11 -11 -12 -11 -10
-11 -10 -10 -10 -10 -10 -10 -10 -10 -10 -9 -9 -9 -9 -9 -9 -10 -11 -10 -10 -11 -11 -11 -11 -12 -11 -11 -11 -11 -10 -9 -9 -11 -13 -12 -11 -9 -10 -11 -10 -11 -11 -12 -10 -10
-11 -10 -10 -10 -10 -10 -10 -9 -9 -9 -9 -9 -9 -9 -9 -9 -9 -10 -10 -11 -11 -11 -11 -11 -11 -11 -11 -10 -8 -9 -9 -10 -11 -13 -11 -11 -9 -11 -11 -10 -11 -11 -11 -10 -10
-11 -10 -10 -10 -10 -10 -10 -10 -9 -9 -9 -9 -9 -9 -9 -9 -8 -8 -9 -10 -11 -11 -11 -11 -12 -10 -9 -9 -10 -11 -11 -11 -10 -12 -12 -11 -10 -10 -11 -10 -11 -12 -11 -10 -10
-11 -11 -10 -10 -10 -10 -10 -10 -10 -9 -9 -10 -10 -9 -9 -9 -8 -9 -8 -9 -10 -11 -12 -12 -11 -8 -10 -11 -11 -11 -11 -11 -12 -12 -12 -11 -11 -11 -12 -11 -11 -11 -11 -10 -10
-11 -11 -11 -12 -12 -12 -13 -13 -13 -12 -10 -12 -12 -10 -10 -10 -9 -10 -10 -9 -9 -10 -11 -12 -8 -11 -11 -11 -11 -10 -11 -12 -12 -13 -13 -12 -11 -10 -11 -11 -10 -11 -11 -11 -10
-12 -14 -15 -17 -18 -18 -19 -19 -19 -20 -16 -16 -15 -16 -14 -13 -12 -12 -12 -12 -11 -10 -12 -12 -10 -11 -12 -11 -11 -10 -11 -12 -13 -13 -12 -13 -11 -9 -10 -10 -10 -11 -11 -11 -10
-16 -17 -19 -20 -22 -22 -22 -22 -22 -22 -21 -20 -20 -19 -18 -18 -17 -16 -15 -14 -12 -13 -14 -10 -11 -11 -11 -9 -11 -9 -12 -12 -12 -12 -12 -11 -11 -8 -10 -9 -11 -11 -10 -10 -11
-19 -21 -22 -23 -23 -24 -23 -23 -23 -23 -23 -24 -23 -22 -22 -22 -21 -19 -18 -17 -15 -16 -15 -12 -13 -13 -10 -11 -11 -12 -12 -12 -12 -12 -11 -10 -11 -9 -8 -11 -11 -11 -11 -10 -11
-23 -24 -24 -24 -25 -25 -25 -24 -24 -24 -25 -25 -25 -24 -25 -24 -23 -21 -21 -20 -18 -18 -16 -14 -14 -12 -12 -12 -11 -12 -12 -12 -11 -11 -10 -10 -10 -8 -10 -10 -11 -11 -11 -10 -10
-24 -24 -24 -25 -26 -26 -26 -26 -26 -27 -27 -26 -25 -26 -26 -25 -23 -23 -22 -21 -20 -20 -18 -17 -16 -12 -11 -11 -10 -10 -10 -10 -10 -10 -10 -10 -9 -8 -10 -10 -10 -10 -10 -10 -11
-24 -24 -25 -26 -26 -26 -26 -26 -26 -26 -26 -26 -26 -26 -26 -26 -24 -23 -23 -22 -21 -21 -21 -20 -16 -14 -13 -12 -11 -10 -10 -11 -12 -11 -12 -13 -9 -10 -10 -10 -10 -10 -10 -10 -11
-24 -25 -26 -27 -26 -26 -26 -26 -26 -26 -26 -26 -26 -26 -25 -26 -24 -23 -22 -22 -22 -22 -22 -20 -17 -16 -13 -13 -13 -11 -12 -11 -11 -11 -12 -12 -11 -10 -10 -10 -10 -10 -10 -11 -11
-24 -25 -26 -27 -27 -26 -26 -26 -26 -26 -26 -26 -26 -26 -26 -25 -24 -23 -22 -22 -22 -22 -21 -20 -17 -18 -16 -14 -11 -11 -11 -11 -11 -12 -12 -12 -10 -10 -11 -10 -10 -10 -10 -11 -11
-24 -25 -26 -27 -26 -26 -26 -26 -26 -26 -26 -26 -26 -26 -26 -25 -24 -24 -22 -21 -22 -22 -21 -21 -18 -18 -18 -13 -13 -13 -11 -11 -10 -11 -13 -14 -10 -10 -10 -10 -10 -10 -10 -11 -11
-24 -25 -25 -26 -26 -26 -26 -26 -26 -26 -26 -26 -26 -26 -25 -25 -25 -24 -24 -22 -22 -21 -20 -21 -19 -18 -16 -17 -15 -13 -12 -11 -12 -12 -11 -11 -11 -10 -11 -10 -11 -10 -11 -11 -11
-24 -25 -25 -25 -26 -26 -26 -26 -26 -26 -26 -26 -26 -25 -25 -25 -25 -24 -24 -23 -22 -21 -21 -20 -20 -18 -17 -16 -14 -13 -12 -12 -12 -12 -12 -11 -11 -11 -12 -11 -11 -11 -11 -11 -11
-24 -24 -25 -25 -25 -25 -26 -26 -26 -26 -26 -26 -26 -25 -26 -25 -25 -24 -24 -24 -22 -21 -21 -20 -20 -18 -17 -16 -14 -14 -13 -12 -12 -12 -11 -11 -11 -11 -13 -11 -11 -11 -11 -11 -11
-23 -24 -24 -25 -25 -25 -25 -25 -25 -26 -26 -26 -26 -26 -26 -26 -25 -24 -23 -23 -23 -22 -21 -20 -19 -18 -17 -15 -14 -14 -12 -13 -12 -12 -11 -11 -11 -11 -12 -12 -12 -12 -12 -12 -12
-22 -23 -23 -24 -24 -24 -24 -25 -25 -26 -25 -25 -26 -26 -25 -25 -25 -25 -23 -22 -22 -21 -21 -20 -19 -19 -17 -17 -15 -14 -13 -13 -12 -12 -11 -11 -12 -12 -12 -12 -12 -12 -12 -12 -12

GFSSW_500_temp_033.txt.gz
Temp
-12 -11 -11 -11 -10 -10 -10 -10 -10 -10 -10 -10 -10 -11 -10 -10 -11 -10 -10 -10 -10 -10 -11 -11 -11 -10 -10 -10 -10 -11 -10 -9 -9 -9 -10 -10 -11 -11 -11 -10 -10 -10 -10 -11 -10
-11 -11 -11 -11 -11 -10 -10 -10 -10 -10 -10 -11 -10 -10 -10 -10 -11 -11 -11 -11 -11 -11 -11 -11 -11 -11 -11 -11 -10 -10 -10 -10 -9 -10 -10 -10 -10 -11 -11 -11 -10 -10 -10 -11 -12
-11 -11 -11 -11 -11 -11 -11 -11 -10 -10 -10 -10 -10 -11 -11 -11 -11 -11 -11 -11 -12 -12 -12 -12 -12 -11 -11 -11 -11 -11 -10 -11 -11 -11 -11 -11 -11 -11 -11 -11 -11 -11 -10 -11 -11
-11 -11 -11 -11 -11 -11 -11 -11 -11 -11 -11 -10 -10 -10 -10 -10 -11 -10 -10 -11 -11 -12 -12 -12 -12 -11 -11 -10 -11 -11 -10 -10 -10 -11 -11 -11 -11 -11 -11 -11 -11 -9 -10 -11 -11
-11 -11 -11 -11 -11 -11 -11 -11 -11 -11 -10 -10 -10 -10 -10 -10 -10 -10 -10 -11 -11 -12 -12 -12 -11 -12 -11 -11 -11 -11 -11 -11 -10 -11 -11 -12 -11 -11 -10 -10 -10 -10 -10 -11 -11
-11 -11 -11 -10 -10 -10 -10 -10 -10 -10 -10 -10 -10 -10 -10 -10 -11 -10 -10 -11 -11 -11 -11 -11 -11 -12 -11 -11 -11 -11 -11 -11 -11 -11 -11 -11 -10 -10 -10 -10 -10 -10 -10 -11 -11
-11 -11 -11 -10 -10 -10 -10 -10 -10 -10 -10 -10 -10 -10 -10 -10 -10 -10 -11 -11 -11 -11 -11 -11 -12 -12 -11 -10 -11 -12 -12 -12 -11 -12 -12 -10 -9 -10 -10 -10 -10 -10 -10 -11 -10
-11 -11 -11 -11 -11 -11 -10 -10 -10 -10 -10 -10 -10 -10 -10 -10 -10 -10 -10 -10 -11 -11 -11 -11 -11 -11 -11 -11 -11 -11 -11 -9 -9 -10 -11 -13 -7 -9 -10 -10 -10 -11 -10 -10 -10
-12 -12 -12 -11 -11 -11 -11 -11 -10 -10 -10 -10 -10 -9 -9 -9 -10 -10 -10 -10 -10 -10 -10 -11 -11 -11 -12 -11 -12 -10 -9 -8 -10 -12 -13 -13 -8 -10 -10 -10 -10 -11 -11 -10 -10
-12 -12 -12 -11 -11 -11 -11 -11 -11 -10 -10 -10 -10 -10 -10 -9 -9 -9 -10 -10 -10 -10 -10 -10 -11 -11 -11 -11 -9 -8 -9 -10 -9 -10 -13 -13 -11 -12 -11 -10 -11 -12 -11 -10 -10
-12 -12 -11 -11 -11 -11 -11 -11 -10 -10 -10 -10 -10 -10 -10 -9 -9 -9 -9 -9 -10 -10 -10 -10 -11 -10 -9 -9 -9 -10 -11 -10 -10 -10 -13 -11 -11 -12 -11 -11 -10 -11 -10 -10 -10
-11 -11 -11 -10 -10 -11 -11 -11 -10 -11 -10 -10 -10 -10 -9 -10 -9 -9 -10 -9 -9 -9 -11 -11 -10 -8 -10 -10 -10 -11 -11 -9 -10 -11 -13 -13 -12 -13 -12 -9 -10 -10 -10 -10 -10
-11 -11 -12 -13 -13 -15 -15 -15 -14 -13 -10 -12 -13 -11 -11 -11 -10 -9 -10 -10 -10 -10 -10 -11 -8 -11 -10 -10 -11 -10 -10 -9 -10 -10 -12 -13 -13 -9 -9 -10 -10 -10 -10 -10 -10
-14 -16 -18 -19 -19 -20 -20 -20 -20 -19 -14 -17 -15 -14 -14 -13 -13 -12 -12 -11 -10 -10 -11 -12 -9 -10 -10 -10 -10 -9 -10 -10 -10 -11 -11 -13 -11 -8 -10 -11 -10 -9 -10 -11 -10
-20 -22 -22 -23 -23 -24 -24 -23 -23 -22 -19 -22 -20 -19 -19 -17 -17 -15 -13 -13 -12 -12 -13 -9 -10 -10 -11 -8 -11 -8 -12 -11 -11 -11 -11 -10 -12 -7 -10 -10 -9 -11 -11 -10 -9
-23 -23 -23 -24 -24 -24 -25 -25 -24 -23 -23 -24 -24 -23 -23 -23 -22 -20 -17 -15 -15 -15 -14 -10 -12 -12 -9 -10 -11 -11 -12 -12 -13 -11 -11 -9 -12 -7 -9 -9 -10 -11 -10 -9 -11
-23 -23 -23 -24 -25 -25 -25 -25 -25 -24 -24 -24 -25 -24 -24 -24 -23 -23 -20 -20 -20 -18 -16 -12 -13 -12 -11 -12 -11 -12 -12 -13 -13 -10 -7 -10 -13 -7 -8 -9 -10 -10 -9 -10 -11
-23 -24 -24 -26 -27 -26 -26 -25 -25 -26 -25 -25 -25 -25 -25 -25 -24 -24 -22 -23 -23 -20 -18 -17 -17 -13 -10 -10 -9 -12 -12 -10 -8 -9 -9 -11 -11 -8 -9 -9 -9 -10 -10 -11 -10
-23 -24 -24 -26 -26 -26 -26 -24 -26 -26 -26 -26 -25 -26 -25 -25 -25 -25 -24 -24 -22 -21 -20 -21 -20 -16 -15 -11 -12 -11 -14 -8 -12 -12 -12 -11 -11 -11 -10 -9 -10 -10 -10 -10 -10
-23 -24 -25 -25 -25 -25 -26 -25 -26 -26 -26 -26 -25 -26 -26 -25 -24 -24 -24 -23 -22 -21 -21 -20 -20 -17 -16 -14 -13 -14 -10 -14 -12 -11 -12 -11 -11 -11 -10 -11 -10 -10 -10 -10 -10
-23 -23 -24 -25 -25 -25 -25 -25 -25 -25 -25 -25 -25 -25 -25 -26 -25 -25 -25 -23 -23 -21 -21 -20 -19 -19 -18 -17 -14 -13 -15 -12 -11 -12 -12 -12 -11 -12 -10 -11 -10 -10 -10 -10 -10
-22 -23 -24 -24 -24 -25 -25 -25 -25 -26 -25 -26 -26 -25 -25 -25 -25 -25 -25 -23 -22 -22 -21 -22 -20 -18 -18 -17 -16 -14 -15 -13 -10 -10 -13 -12 -11 -11 -11 -11 -10 -10 -9 -10 -10
-22 -22 -23 -24 -24 -25 -25 -25 -25 -26 -26 -26 -25 -25 -25 -25 -24 -24 -24 -23 -23 -22 -21 -22 -20 -18 -17 -17 -18 -17 -16 -14 -12 -14 -13 -12 -11 -11 -11 -11 -10 -10 -9 -10 -11
-22 -23 -23 -23 -24 -24 -25 -25 -25 -25 -26 -26 -25 -25 -25 -25 -25 -24 -24 -23 -22 -22 -21 -21 -20 -18 -16 -17 -17 -17 -16 -15 -14 -14 -13 -12 -12 -11 -11 -10 -10 -10 -11 -11 -11
-22 -22 -23 -23 -23 -24 -24 -25 -25 -25 -25 -25 -25 -25 -25 -25 -25 -24 -24 -23 -23 -22 -21 -21 -20 -18 -16 -16 -16 -16 -16 -15 -15 -14 -13 -13 -13 -13 -13 -13 -11 -11 -11 -11 -11
-22 -22 -23 -23 -22 -23 -23 -24 -24 -25 -25 -25 -25 -25 -25 -25 -24 -24 -24 -23 -22 -21 -21 -21 -19 -18 -19 -16 -16 -16 -16 -15 -15 -15 -13 -13 -13 -13 -13 -13 -12 -12 -11 -12 -12
-21 -21 -22 -22 -22 -23 -23 -24 -24 -24 -25 -25 -25 -25 -25 -25 -24 -25 -24 -24 -23 -22 -21 -20 -19 -21 -19 -17 -16 -17 -16 -15 -15 -15 -14 -14 -13 -12 -13 -11 -12 -12 -12 -12 -12

GFSSW_500_temp_036.txt.gz
Temp
-11 -11 -11 -11 -10 -10 -10 -10 -10 -10 -10 -10 -10 -10 -10 -10 -10 -10 -10 -10 -9 -10 -11 -10 -10 -10 -10 -10 -10 -11 -10 -9 -9 -9 -9 -10 -10 -10 -9 -10 -10 -10 -10 -9 -10
-11 -11 -11 -11 -11 -11 -10 -10 -10 -10 -10 -10 -10 -10 -10 -10 -10 -10 -10 -11 -11 -10 -10 -10 -10 -10 -10 -10 -10 -10 -10 -9 -9 -9 -10 -10 -10 -10 -10 -10 -10 -10 -10 -10 -11
-11 -11 -11 -11 -11 -11 -11 -11 -10 -10 -10 -9 -9 -10 -10 -10 -11 -10 -10 -11 -12 -11 -11 -11 -11 -11 -11 -11 -10 -10 -9 -9 -9 -10 -10 -10 -10 -10 -10 -10 -10 -10 -10 -10 -10
-11 -11 -11 -11 -11 -11 -11 -11 -11 -11 -10 -10 -10 -10 -10 -10 -10 -10 -10 -11 -11 -12 -12 -11 -11 -11 -11 -11 -11 -11 -9 -10 -10 -10 -10 -10 -10 -10 -10 -10 -10 -10 -11 -11 -10
-11 -11 -11 -11 -11 -11 -11 -11 -11 -11 -11 -10 -10 -10 -10 -10 -9 -10 -10 -10 -11 -11 -12 -12 -12 -11 -11 -12 -12 -11 -10 -11 -11 -11 -10 -10 -10 -10 -10 -10 -10 -10 -10 -10 -10
-11 -11 -11 -11 -11 -11 -11 -11 -11 -11 -11 -11 -10 -10 -10 -10 -11 -11 -9 -10 -10 -11 -11 -11 -12 -12 -11 -11 -12 -11 -12 -11 -11 -11 -11 -11 -10 -10 -10 -11 -10 -10 -9 -9 -10
-11 -11 -11 -11 -11 -11 -11 -11 -11 -11 -11 -11 -10 -10 -10 -10 -10 -10 -10 -10 -10 -10 -10 -11 -12 -12 -11 -11 -11 -12 -12 -11 -10 -11 -11 -12 -9 -10 -11 -10 -9 -10 -9 -10 -10
-12 -12 -12 -12 -11 -11 -11 -11 -11 -11 -11 -11 -11 -10 -10 -10 -10 -10 -10 -10 -11 -10 -10 -11 -12 -11 -11 -11 -11 -12 -12 -10 -9 -10 -9 -12 -9 -9 -10 -11 -10 -10 -10 -11 -12
-12 -12 -12 -12 -12 -12 -12 -12 -11 -11 -11 -11 -11 -10 -10 -10 -10 -10 -10 -10 -10 -10 -10 -11 -11 -11 -11 -11 -12 -11 -10 -9 -9 -9 -11 -12 -10 -9 -11 -11 -10 -11 -11 -11 -11
-12 -12 -12 -12 -12 -12 -12 -12 -12 -12 -11 -11 -11 -10 -11 -10 -10 -10 -10 -10 -10 -10 -10 -10 -11 -11 -11 -11 -9 -9 -9 -8 -9 -9 -10 -12 -11 -9 -11 -12 -12 -12 -10 -10 -11
-11 -11 -11 -11 -11 -11 -11 -11 -11 -11 -11 -11 -11 -11 -11 -11 -10 -10 -10 -10 -10 -10 -10 -11 -11 -10 -9 -10 -10 -10 -9 -10 -10 -10 -10 -11 -10 -9 -11 -12 -11 -11 -10 -10 -10
-11 -11 -11 -11 -13 -13 -13 -13 -13 -12 -11 -11 -11 -11 -11 -11 -10 -10 -10 -10 -10 -10 -10 -11 -10 -9 -10 -10 -10 -10 -10 -10 -10 -10 -10 -13 -12 -9 -11 -10 -11 -11 -9 -8 -10
-13 -15 -17 -18 -20 -20 -21 -20 -19 -18 -12 -12 -14 -12 -13 -12 -11 -11 -11 -11 -10 -10 -10 -11 -9 -11 -10 -10 -10 -10 -10 -9 -10 -11 -10 -12 -10 -10 -9 -10 -12 -10 -9 -10 -10
-16 -18 -20 -21 -21 -22 -23 -23 -23 -23 -16 -17 -16 -15 -15 -15 -13 -13 -12 -12 -11 -11 -12 -11 -10 -10 -10 -10 -10 -10 -9 -10 -10 -10 -10 -12 -12 -8 -8 -9 -10 -9 -10 -10 -10
-18 -20 -21 -22 -23 -25 -25 -25 -24 -24 -22 -23 -22 -21 -20 -17 -17 -16 -14 -14 -12 -13 -14 -10 -10 -10 -10 -8 -10 -9 -13 -11 -11 -11 -12 -12 -12 -5 -9 -9 -9 -10 -10 -10 -10
-19 -21 -21 -22 -25 -26 -26 -25 -24 -24 -23 -23 -22 -22 -22 -21 -20 -21 -18 -16 -16 -15 -14 -11 -12 -11 -10 -10 -11 -10 -12 -12 -12 -12 -14 -8 -11 -6 -8 -9 -9 -10 -10 -10 -10
-20 -21 -21 -23 -24 -25 -25 -25 -24 -23 -24 -23 -22 -23 -23 -22 -22 -22 -22 -22 -19 -19 -16 -13 -13 -11 -11 -10 -10 -12 -11 -12 -13 -12 -9 -10 -10 -7 -8 -9 -10 -10 -9 -9 -10
-21 -21 -22 -22 -24 -24 -24 -24 -24 -24 -24 -23 -24 -24 -24 -24 -23 -24 -23 -23 -23 -22 -20 -17 -14 -13 -11 -10 -10 -11 -12 -11 -10 -9 -8 -10 -8 -8 -10 -10 -9 -9 -8 -9 -10
-21 -21 -22 -22 -23 -24 -23 -24 -25 -25 -24 -24 -24 -24 -24 -24 -24 -23 -23 -23 -22 -22 -21 -20 -17 -14 -14 -12 -12 -10 -16 -9 -13 -12 -13 -11 -11 -9 -10 -10 -9 -9 -9 -10 -9
-20 -21 -22 -23 -23 -24 -24 -24 -25 -25 -25 -25 -25 -24 -24 -23 -23 -24 -24 -23 -23 -23 -22 -21 -19 -16 -13 -14 -13 -14 -11 -14 -13 -13 -13 -11 -11 -11 -11 -11 -10 -9 -10 -10 -9
-20 -21 -22 -22 -23 -24 -24 -24 -25 -25 -25 -25 -25 -24 -24 -24 -24 -23 -24 -24 -23 -23 -23 -21 -21 -18 -17 -16 -14 -13 -14 -14 -13 -13 -12 -11 -11 -11 -11 -11 -9 -10 -10 -10 -10
-20 -20 -22 -22 -23 -23 -23 -24 -25 -25 -26 -26 -25 -24 -24 -24 -23 -23 -24 -23 -23 -23 -23 -22 -21 -19 -18 -19 -18 -17 -16 -15 -13 -11 -13 -13 -11 -11 -11 -11 -10 -10 -10 -9 -10
-20 -21 -21 -22 -22 -23 -23 -24 -24 -25 -25 -25 -25 -25 -24 -24 -23 -23 -23 -23 -23 -23 -22 -21 -20 -19 -20 -19 -18 -18 -17 -15 -14 -15 -13 -12 -11 -12 -11 -10 -11 -11 -10 -9 -10
-19 -19 -21 -22 -23 -23 -23 -24 -24 -25 -24 -25 -24 -25 -24 -24 -24 -24 -23 -22 -23 -22 -22 -21 -20 -20 -19 -19 -18 -17 -17 -16 -15 -15 -13 -13 -12 -11 -11 -11 -11 -12 -10 -10 -10
-19 -20 -21 -22 -22 -22 -23 -23 -24 -24 -25 -24 -24 -24 -24 -24 -24 -23 -23 -23 -23 -22 -21 -21 -20 -20 -20 -18 -17 -16 -17 -16 -15 -14 -13 -13 -12 -12 -12 -11 -11 -10 -10 -11 -10
-19 -20 -21 -21 -22 -23 -23 -23 -24 -24 -24 -24 -24 -24 -24 -24 -24 -24 -23 -23 -23 -22 -21 -20 -20 -20 -20 -18 -17 -16 -16 -16 -15 -14 -13 -12 -12 -12 -12 -11 -10 -11 -10 -11 -11
-19 -19 -20 -21 -21 -23 -23 -23 -23 -23 -23 -24 -24 -24 -24 -24 -24 -23 -23 -23 -22 -22 -21 -20 -21 -20 -19 -17 -17 -16 -16 -16 -15 -14 -12 -12 -12 -12 -11 -13 -11 -11 -11 -11 -12

GFSSW_500_temp_042.txt.gz
Temp
-11 -12 -12 -12 -11 -11 -10 -10 -10 -10 -10 -10 -10 -10 -10 -10 -10 -10 -10 -10 -11 -11 -10 -9 -9 -9 -9 -9 -9 -9 -8 -8 -8 -8 -8 -10 -9 -9 -9 -9 -9 -9 -9 -9 -10
-11 -11 -11 -11 -11 -11 -11 -11 -11 -11 -10 -10 -10 -10 -10 -10 -10 -10 -10 -11 -11 -10 -11 -11 -10 -10 -10 -10 -9 -9 -9 -8 -9 -9 -9 -11 -8 -9 -9 -9 -8 -10 -10 -9 -10
-11 -11 -11 -11 -11 -11 -11 -11 -11 -11 -11 -11 -10 -10 -10 -10 -10 -11 -11 -10 -11 -11 -10 -11 -11 -11 -11 -11 -10 -10 -9 -9 -9 -9 -9 -10 -9 -9 -10 -9 -9 -10 -9 -10 -10
-12 -12 -12 -11 -11 -11 -11 -11 -11 -11 -11 -11 -11 -11 -10 -10 -10 -10 -11 -11 -11 -11 -11 -11 -11 -11 -10 -10 -11 -10 -10 -10 -10 -10 -10 -10 -10 -10 -9 -9 -10 -10 -9 -10 -10
-12 -12 -12 -12 -12 -12 -12 -12 -11 -11 -11 -11 -11 -11 -11 -10 -10 -11 -10 -11 -11 -11 -11 -11 -12 -11 -11 -11 -11 -11 -10 -11 -10 -10 -10 -10 -10 -9 -9 -10 -10 -10 -10 -10 -10
-12 -12 -12 -12 -12 -12 -12 -12 -11 -12 -12 -12 -11 -11 -11 -10 -11 -11 -10 -10 -11 -11 -11 -11 -11 -12 -12 -11 -11 -11 -11 -11 -11 -10 -10 -9 -9 -10 -9 -9 -10 -9 -9 -10 -10
-12 -12 -12 -12 -12 -12 -12 -12 -12 -12 -12 -11 -11 -11 -11 -11 -11 -11 -11 -11 -11 -11 -11 -11 -11 -11 -11 -11 -11 -11 -11 -11 -10 -10 -10 -10 -8 -8 -9 -9 -10 -10 -10 -9 -10
-12 -12 -12 -12 -12 -12 -12 -12 -11 -11 -11 -12 -12 -11 -11 -11 -11 -11 -11 -11 -11 -11 -11 -12 -12 -12 -11 -12 -12 -11 -11 -10 -9 -10 -10 -12 -6 -8 -10 -10 -11 -10 -10 -9 -9
-12 -12 -12 -12 -12 -12 -12 -12 -12 -12 -12 -11 -11 -11 -11 -12 -12 -11 -11 -11 -12 -12 -11 -12 -12 -12 -12 -11 -12 -11 -10 -9 -9 -10 -11 -12 -6 -9 -10 -10 -10 -10 -9 -9 -9
-13 -13 -12 -11 -10 -11 -11 -12 -12 -12 -11 -11 -12 -11 -12 -12 -12 -12 -11 -11 -11 -12 -12 -12 -12 -12 -12 -11 -10 -10 -10 -9 -8 -10 -11 -11 -8 -10 -11 -10 -10 -9 -9 -9 -8
-13 -12 -11 -11 -12 -13 -15 -15 -16 -16 -16 -15 -13 -11 -12 -12 -12 -12 -12 -12 -11 -11 -11 -12 -12 -11 -10 -11 -11 -11 -10 -10 -11 -11 -11 -11 -10 -10 -10 -11 -10 -9 -8 -8 -8
-13 -13 -13 -13 -14 -16 -16 -17 -20 -20 -19 -22 -19 -16 -14 -14 -11 -11 -12 -12 -12 -11 -11 -11 -11 -11 -11 -11 -11 -11 -11 -10 -11 -11 -11 -11 -11 -9 -10 -10 -9 -9 -8 -8 -8
-14 -14 -16 -16 -16 -17 -18 -20 -21 -22 -23 -24 -23 -22 -21 -18 -13 -13 -13 -13 -13 -12 -12 -11 -11 -11 -11 -11 -11 -11 -11 -11 -11 -11 -10 -11 -11 -10 -9 -9 -9 -8 -8 -8 -8
-15 -16 -16 -17 -17 -18 -20 -21 -21 -22 -23 -23 -23 -22 -22 -21 -19 -19 -17 -15 -14 -13 -13 -12 -11 -11 -11 -11 -11 -11 -11 -11 -11 -11 -10 -12 -10 -10 -8 -8 -8 -8 -8 -8 -8
-16 -17 -17 -17 -18 -19 -20 -21 -22 -22 -23 -22 -23 -22 -22 -22 -22 -21 -20 -17 -16 -15 -14 -12 -12 -12 -11 -11 -11 -10 -11 -11 -12 -11 -11 -11 -12 -7 -8 -7 -8 -8 -8 -9 -9
-17 -17 -17 -18 -18 -19 -21 -22 -22 -23 -23 -23 -23 -24 -23 -22 -22 -21 -21 -21 -20 -18 -15 -14 -14 -13 -12 -11 -11 -11 -11 -12 -12 -11 -11 -10 -11 -7 -8 -7 -8 -8 -9 -10 -9
-17 -17 -18 -18 -19 -20 -22 -23 -22 -23 -24 -24 -23 -24 -23 -23 -22 -22 -21 -21 -21 -20 -17 -17 -16 -14 -14 -13 -12 -11 -11 -11 -11 -11 -9 -10 -10 -7 -7 -8 -9 -9 -9 -9 -9
-17 -17 -18 -18 -19 -20 -22 -22 -23 -24 -24 -24 -25 -24 -23 -23 -22 -22 -22 -22 -22 -22 -19 -19 -16 -15 -15 -14 -14 -13 -12 -11 -11 -10 -10 -10 -8 -7 -7 -8 -9 -9 -10 -9 -8
-17 -17 -18 -19 -19 -20 -21 -22 -23 -23 -24 -24 -24 -24 -24 -23 -22 -23 -23 -23 -23 -22 -22 -21 -18 -17 -17 -16 -14 -14 -12 -12 -11 -12 -10 -9 -8 -8 -8 -8 -9 -11 -9 -9 -8
-18 -18 -18 -19 -19 -20 -22 -22 -23 -23 -24 -24 -24 -24 -24 -24 -23 -23 -23 -23 -22 -22 -22 -21 -20 -20 -19 -17 -16 -15 -14 -14 -13 -13 -11 -9 -8 -8 -8 -9 -10 -11 -10 -9 -8
-18 -18 -18 -18 -19 -20 -22 -22 -23 -23 -24 -24 -24 -24 -24 -24 -24 -23 -23 -22 -22 -23 -23 -22 -21 -20 -20 -20 -17 -16 -15 -15 -15 -12 -11 -9 -8 -8 -9 -9 -10 -10 -10 -9 -8
-18 -18 -18 -18 -19 -20 -21 -22 -23 -23 -24 -24 -24 -24 -24 -24 -24 -23 -23 -23 -23 -23 -23 -22 -22 -21 -20 -20 -18 -18 -16 -16 -15 -12 -10 -9 -8 -8 -9 -11 -10 -10 -11 -9 -9
-18 -18 -18 -19 -19 -20 -22 -22 -22 -23 -23 -24 -24 -24 -24 -23 -24 -24 -24 -23 -23 -23 -23 -23 -22 -22 -21 -21 -20 -19 -18 -17 -14 -13 -11 -10 -8 -10 -10 -12 -10 -10 -11 -10 -10
-18 -19 -19 -19 -19 -20 -21 -22 -22 -23 -23 -24 -24 -24 -23 -24 -24 -23 -23 -24 -23 -23 -23 -22 -22 -22 -22 -22 -21 -20 -19 -17 -15 -14 -11 -10 -8 -10 -11 -12 -11 -11 -11 -9 -10
-18 -19 -19 -19 -20 -20 -21 -21 -22 -22 -23 -23 -24 -24 -24 -24 -24 -24 -23 -23 -23 -23 -23 -23 -22 -22 -22 -22 -22 -20 -19 -17 -16 -14 -12 -10 -9 -10 -12 -12 -12 -12 -11 -10 -10
-18 -19 -20 -20 -20 -20 -20 -21 -22 -22 -22 -23 -23 -24 -24 -24 -24 -23 -23 -24 -23 -23 -22 -22 -22 -22 -21 -22 -22 -21 -20 -20 -17 -16 -12 -11 -9 -13 -13 -12 -12 -11 -11 -11 -10
-18 -19 -19 -20 -20 -20 -20 -21 -21 -22 -22 -23 -23 -23 -24 -23 -23 -23 -23 -23 -23 -22 -22 -22 -22 -22 -21 -21 -21 -20 -20 -20 -18 -17 -13 -12 -11 -13 -13 -12 -12 -11 -11 -11 -11

GFSSW_500_temp_045.txt.gz
Temp
-12 -12 -12 -12 -12 -12 -11 -11 -10 -10 -10 -10 -10 -10 -10 -10 -10 -11 -10 -11 -11 -11 -11 -10 -10 -10 -9 -9 -9 -8 -8 -7 -7 -8 -9 -9 -9 -9 -9 -8 -8 -8 -7 -8 -8
-12 -12 -12 -12 -12 -12 -11 -11 -11 -11 -11 -10 -10 -10 -10 -10 -10 -10 -11 -11 -11 -11 -11 -11 -11 -10 -10 -9 -9 -9 -8 -8 -8 -9 -9 -9 -10 -10 -9 -8 -8 -8 -8 -8 -8
-12 -12 -12 -12 -12 -12 -12 -11 -11 -11 -11 -11 -11 -11 -10 -10 -10 -10 -11 -11 -12 -12 -11 -11 -12 -11 -11 -10 -9 -9 -9 -9 -9 -9 -10 -11 -10 -10 -9 -9 -9 -8 -9 -8 -9
-12 -12 -12 -12 -12 -12 -11 -11 -11 -11 -11 -11 -11 -11 -11 -10 -10 -10 -11 -11 -11 -12 -12 -12 -12 -12 -11 -11 -11 -10 -9 -9 -10 -10 -10 -11 -11 -9 -9 -9 -10 -9 -9 -9 -9
-12 -12 -12 -12 -12 -12 -12 -12 -12 -12 -12 -11 -11 -11 -11 -11 -11 -11 -11 -11 -12 -11 -12 -12 -12 -12 -11 -11 -12 -11 -10 -10 -11 -11 -11 -11 -10 -10 -9 -9 -9 -9 -10 -10 -10
-12 -12 -12 -12 -12 -12 -12 -12 -12 -12 -12 -12 -12 -11 -11 -11 -11 -12 -11 -11 -11 -11 -12 -12 -12 -12 -12 -11 -11 -11 -11 -11 -11 -10 -11 -11 -10 -10 -9 -10 -10 -11 -10 -9 -9
-12 -12 -12 -12 -11 -11 -11 -11 -12 -12 -11 -11 -12 -12 -11 -11 -11 -11 -11 -11 -11 -11 -12 -12 -12 -12 -12 -12 -12 -11 -11 -11 -10 -11 -10 -11 -9 -9 -9 -10 -10 -11 -10 -10 -11
-12 -12 -12 -12 -12 -12 -12 -12 -12 -12 -12 -12 -11 -11 -11 -12 -12 -12 -11 -11 -12 -11 -12 -12 -12 -12 -12 -12 -12 -12 -11 -10 -10 -10 -11 -11 -7 -8 -10 -10 -11 -11 -11 -11 -11
-13 -13 -13 -13 -13 -13 -13 -12 -11 -12 -11 -11 -10 -11 -11 -11 -11 -12 -12 -11 -12 -11 -12 -12 -12 -12 -12 -12 -12 -12 -10 -10 -10 -11 -11 -11 -7 -9 -10 -11 -11 -12 -11 -10 -9
-13 -13 -13 -13 -12 -12 -11 -11 -11 -12 -12 -12 -12 -11 -12 -12 -12 -11 -12 -12 -12 -12 -12 -12 -12 -12 -12 -12 -10 -10 -10 -10 -10 -10 -12 -12 -9 -10 -10 -10 -11 -11 -11 -9 -9
-13 -13 -13 -12 -12 -12 -12 -12 -14 -16 -16 -16 -17 -17 -14 -16 -12 -12 -12 -12 -12 -12 -12 -12 -12 -12 -11 -12 -12 -11 -11 -11 -10 -11 -12 -11 -10 -10 -11 -10 -9 -9 -9 -8 -8
-13 -13 -13 -13 -13 -13 -13 -14 -15 -16 -17 -20 -21 -22 -22 -22 -20 -16 -14 -12 -12 -12 -12 -12 -11 -11 -12 -12 -12 -12 -11 -11 -11 -12 -12 -11 -10 -10 -9 -9 -9 -8 -8 -8 -8
-14 -14 -14 -14 -14 -15 -16 -16 -17 -18 -21 -21 -22 -22 -23 -23 -22 -22 -20 -17 -13 -13 -13 -12 -12 -12 -12 -12 -12 -12 -12 -12 -12 -12 -12 -11 -10 -9 -9 -8 -9 -8 -8 -8 -8
-14 -14 -15 -15 -15 -16 -17 -17 -18 -21 -22 -22 -22 -23 -23 -23 -23 -22 -22 -21 -19 -16 -14 -13 -12 -12 -12 -12 -12 -12 -12 -12 -12 -12 -11 -12 -9 -9 -8 -8 -8 -8 -8 -8 -8
-15 -15 -15 -16 -16 -17 -18 -18 -19 -22 -22 -23 -24 -23 -23 -23 -23 -23 -23 -20 -20 -19 -18 -14 -13 -14 -13 -13 -12 -11 -12 -12 -12 -12 -12 -11 -11 -6 -9 -8 -8 -8 -8 -8 -9
-15 -16 -16 -17 -17 -17 -18 -18 -21 -22 -23 -23 -24 -23 -23 -22 -23 -22 -22 -22 -23 -22 -21 -17 -17 -16 -14 -14 -13 -13 -12 -12 -12 -12 -11 -10 -11 -7 -8 -8 -8 -9 -8 -9 -9
-16 -16 -17 -17 -18 -18 -18 -19 -22 -22 -23 -24 -24 -24 -23 -22 -22 -22 -22 -22 -22 -21 -20 -20 -19 -16 -16 -15 -14 -13 -12 -12 -13 -12 -10 -10 -11 -8 -8 -8 -8 -8 -9 -9 -9
-16 -17 -17 -18 -18 -18 -19 -20 -22 -22 -23 -24 -24 -24 -24 -23 -22 -23 -22 -22 -22 -22 -22 -22 -20 -19 -17 -15 -15 -13 -13 -12 -12 -11 -11 -11 -9 -8 -8 -8 -8 -8 -9 -9 -9
-17 -17 -18 -18 -19 -19 -19 -20 -22 -22 -23 -23 -23 -24 -24 -24 -23 -23 -23 -22 -22 -23 -22 -22 -21 -20 -19 -18 -16 -15 -14 -13 -13 -12 -11 -10 -9 -8 -8 -9 -9 -9 -10 -10 -9
-17 -18 -18 -19 -19 -19 -19 -20 -22 -22 -23 -24 -24 -24 -24 -24 -24 -24 -23 -23 -23 -23 -23 -22 -22 -22 -21 -19 -17 -17 -17 -15 -14 -13 -11 -9 -9 -8 -8 -9 -10 -10 -11 -9 -9
-17 -17 -18 -19 -19 -19 -19 -20 -22 -22 -23 -24 -24 -24 -24 -24 -24 -24 -24 -24 -23 -23 -22 -22 -22 -22 -22 -21 -20 -18 -17 -16 -15 -13 -10 -10 -9 -8 -8 -9 -10 -11 -11 -9 -9
-17 -17 -18 -19 -19 -19 -19 -20 -21 -22 -23 -23 -24 -24 -24 -24 -24 -24 -24 -24 -23 -23 -23 -22 -22 -21 -21 -22 -21 -20 -18 -17 -15 -12 -11 -10 -8 -9 -9 -9 -11 -12 -11 -10 -10
-17 -17 -18 -19 -19 -20 -20 -20 -21 -22 -22 -23 -23 -24 -24 -24 -24 -24 -24 -24 -23 -23 -23 -23 -22 -22 -22 -22 -21 -20 -19 -17 -14 -13 -11 -10 -8 -9 -9 -9 -11 -12 -12 -11 -10
-18 -18 -18 -19 -19 -20 -20 -21 -21 -22 -22 -23 -24 -24 -24 -24 -24 -23 -23 -23 -23 -23 -23 -23 -23 -22 -22 -22 -22 -21 -20 -18 -16 -13 -11 -10 -9 -9 -9 -10 -11 -12 -11 -10 -10
-17 -18 -18 -19 -20 -20 -20 -21 -21 -22 -22 -23 -24 -24 -24 -24 -24 -24 -24 -23 -23 -23 -23 -23 -23 -22 -22 -22 -22 -21 -20 -18 -16 -13 -12 -10 -9 -9 -10 -12 -11 -11 -10 -11 -10
-17 -18 -18 -19 -19 -20 -20 -21 -21 -21 -22 -23 -23 -23 -23 -23 -23 -23 -23 -23 -23 -23 -22 -22 -22 -22 -22 -22 -22 -21 -21 -19 -17 -14 -11 -10 -10 -9 -12 -13 -12 -12 -11 -10 -9
-18 -18 -19 -19 -19 -20 -20 -20 -21 -21 -22 -23 -23 -23 -23 -23 -23 -23 -23 -23 -23 -23 -22 -22 -22 -22 -21 -22 -22 -20 -20 -20 -17 -15 -12 -10 -10 -10 -12 -13 -13 -13 -12 -11 -10

GFSSW_500_temp_048.txt.gz
Temp
-12 -12 -12 -12 -12 -12 -12 -12 -11 -11 -11 -11 -11 -11 -10 -10 -10 -11 -11 -12 -13 -12 -12 -12 -11 -10 -10 -9 -9 -9 -8 -7 -8 -8 -9 -9 -9 -9 -9 -8 -8 -8 -8 -8 -8
-12 -12 -12 -12 -12 -12 -12 -12 -11 -11 -11 -11 -11 -11 -11 -10 -10 -10 -10 -11 -12 -13 -12 -12 -12 -11 -10 -10 -9 -9 -8 -8 -8 -8 -9 -9 -9 -9 -9 -9 -9 -8 -8 -8 -8
-12 -12 -12 -12 -12 -12 -12 -12 -12 -12 -11 -11 -11 -11 -11 -11 -11 -11 -11 -11 -11 -12 -12 -12 -12 -12 -11 -11 -10 -9 -8 -9 -9 -9 -10 -10 -10 -10 -10 -9 -9 -9 -9 -8 -8
-13 -12 -12 -12 -12 -12 -12 -12 -12 -12 -12 -12 -11 -11 -11 -11 -12 -11 -11 -11 -11 -11 -12 -12 -12 -12 -12 -11 -11 -10 -9 -9 -9 -10 -10 -11 -11 -9 -10 -10 -10 -10 -9 -9 -9
-13 -13 -13 -13 -12 -12 -12 -12 -12 -12 -12 -12 -12 -12 -11 -11 -12 -11 -11 -11 -12 -11 -11 -12 -13 -12 -12 -12 -12 -11 -10 -10 -10 -11 -12 -12 -10 -10 -10 -10 -10 -10 -10 -9 -9
-13 -13 -13 -12 -12 -12 -12 -12 -12 -12 -12 -12 -12 -12 -12 -12 -12 -12 -11 -11 -11 -12 -12 -12 -12 -12 -12 -12 -12 -11 -11 -11 -11 -11 -12 -11 -10 -9 -9 -10 -10 -10 -10 -10 -10
-13 -13 -12 -12 -12 -12 -12 -12 -12 -12 -11 -12 -12 -11 -11 -12 -12 -12 -11 -12 -11 -11 -11 -12 -12 -12 -12 -12 -11 -12 -12 -12 -11 -12 -12 -12 -10 -8 -10 -10 -9 -10 -9 -10 -9
-13 -13 -13 -13 -12 -12 -12 -12 -12 -12 -12 -12 -12 -11 -12 -12 -12 -12 -11 -12 -12 -12 -11 -12 -12 -12 -12 -12 -12 -12 -12 -12 -11 -11 -11 -12 -8 -9 -10 -11 -10 -11 -10 -10 -9
-13 -13 -13 -13 -13 -13 -13 -13 -13 -12 -11 -11 -11 -11 -11 -11 -11 -11 -12 -12 -12 -12 -12 -12 -12 -12 -12 -12 -12 -12 -11 -11 -11 -11 -12 -12 -8 -9 -10 -10 -11 -11 -10 -10 -9
-14 -14 -14 -13 -13 -13 -13 -13 -12 -12 -12 -12 -11 -11 -12 -12 -12 -11 -11 -11 -12 -12 -12 -12 -12 -12 -12 -12 -10 -10 -11 -11 -11 -11 -12 -12 -8 -10 -10 -10 -11 -11 -10 -10 -9
-14 -14 -14 -13 -13 -13 -13 -13 -14 -14 -13 -13 -13 -13 -14 -14 -16 -17 -13 -11 -11 -12 -12 -13 -13 -12 -11 -11 -12 -12 -12 -11 -11 -12 -12 -11 -10 -10 -10 -10 -10 -9 -9 -9 -9
-15 -14 -14 -14 -14 -13 -13 -13 -13 -13 -14 -14 -16 -17 -19 -21 -20 -21 -21 -19 -16 -14 -13 -14 -12 -12 -12 -13 -12 -12 -12 -12 -12 -12 -12 -11 -10 -10 -10 -9 -9 -8 -9 -8 -8
-15 -15 -14 -14 -14 -14 -14 -14 -15 -15 -15 -16 -18 -20 -22 -22 -23 -22 -22 -22 -22 -20 -18 -15 -13 -13 -13 -13 -13 -12 -12 -12 -12 -13 -12 -11 -10 -10 -9 -9 -9 -8 -8 -7 -8
-15 -15 -15 -15 -15 -15 -15 -16 -16 -16 -16 -18 -21 -22 -23 -23 -23 -22 -22 -23 -23 -22 -22 -19 -16 -14 -14 -13 -13 -13 -12 -12 -12 -12 -12 -12 -9 -9 -9 -8 -8 -8 -8 -8 -8
-15 -15 -15 -15 -15 -16 -16 -17 -17 -17 -18 -20 -22 -23 -23 -23 -23 -23 -22 -23 -23 -24 -23 -21 -19 -17 -15 -14 -14 -13 -13 -13 -13 -13 -12 -12 -11 -7 -9 -8 -8 -9 -9 -8 -8
-15 -15 -15 -15 -16 -16 -17 -18 -18 -18 -20 -22 -22 -23 -23 -24 -23 -23 -22 -22 -23 -24 -24 -22 -22 -20 -18 -16 -15 -14 -14 -13 -13 -13 -12 -11 -12 -7 -8 -8 -9 -9 -9 -9 -9
-15 -15 -15 -16 -16 -17 -18 -18 -18 -19 -21 -22 -23 -23 -24 -24 -23 -23 -22 -23 -23 -23 -23 -23 -23 -22 -20 -18 -16 -15 -14 -14 -14 -13 -11 -11 -12 -8 -9 -9 -9 -9 -9 -9 -9
-15 -15 -16 -16 -17 -18 -18 -19 -19 -20 -22 -23 -23 -24 -24 -24 -24 -23 -23 -23 -23 -23 -22 -23 -23 -22 -21 -19 -18 -16 -15 -14 -14 -12 -12 -12 -11 -8 -9 -9 -9 -9 -9 -9 -10
-15 -16 -16 -17 -17 -18 -19 -19 -19 -20 -22 -22 -23 -24 -24 -24 -24 -24 -23 -23 -23 -23 -22 -22 -22 -22 -21 -20 -20 -18 -16 -15 -15 -14 -12 -11 -10 -10 -9 -9 -10 -11 -10 -9 -9
-16 -16 -17 -17 -18 -19 -19 -19 -20 -20 -22 -22 -23 -24 -24 -24 -24 -24 -24 -23 -23 -23 -23 -23 -22 -22 -22 -21 -20 -19 -18 -17 -16 -14 -12 -11 -10 -10 -9 -9 -11 -11 -10 -10 -9
-16 -17 -17 -18 -18 -19 -19 -20 -20 -21 -22 -22 -23 -23 -24 -24 -24 -24 -24 -24 -24 -24 -23 -23 -23 -23 -22 -22 -22 -20 -19 -18 -16 -14 -12 -11 -10 -10 -10 -10 -10 -10 -10 -10 -10
-17 -17 -17 -17 -18 -19 -19 -20 -20 -21 -21 -22 -23 -23 -24 -24 -24 -24 -24 -24 -24 -24 -23 -23 -23 -22 -22 -23 -22 -21 -19 -18 -17 -14 -12 -11 -11 -10 -10 -10 -10 -10 -11 -11 -10
-17 -17 -18 -18 -18 -19 -20 -20 -20 -21 -21 -22 -23 -23 -24 -24 -24 -24 -24 -24 -24 -24 -24 -23 -23 -22 -22 -22 -22 -22 -21 -20 -17 -15 -12 -12 -10 -10 -10 -9 -10 -10 -11 -10 -10
-17 -17 -17 -18 -18 -19 -20 -20 -20 -21 -21 -22 -23 -23 -23 -24 -24 -23 -23 -23 -23 -23 -24 -23 -23 -23 -22 -23 -22 -22 -21 -20 -18 -15 -12 -11 -10 -11 -10 -11 -10 -11 -11 -10 -10
-17 -18 -18 -18 -18 -19 -20 -20 -20 -21 -22 -22 -23 -23 -23 -23 -23 -23 -23 -23 -24 -23 -23 -23 -23 -23 -22 -22 -22 -22 -21 -20 -18 -15 -13 -11 -11 -10 -11 -12 -10 -12 -12 -10 -11
-18 -18 -18 -18 -19 -19 -20 -20 -20 -21 -21 -22 -22 -22 -22 -22 -23 -23 -23 -24 -23 -23 -23 -23 -23 -22 -22 -22 -22 -21 -21 -20 -18 -16 -12 -11 -11 -10 -11 -12 -13 -13 -12 -11 -11
-18 -18 -19 -18 -19 -19 -20 -20 -20 -21 -22 -21 -22 -22 -22 -22 -22 -22 -23 -24 -23 -23 -23 -22 -22 -22 -22 -22 -22 -21 -21 -21 -19 -16 -13 -12 -11 -12 -11 -12 -13 -13 -12 -12 -12